Time,TemperatureF,DewpointF,PressureIn,WindDirection,WindDirectionDegrees,WindSpeedMPH,WindSpeedGustMPH,Humidity,HourlyPrecipIn,Conditions,Clouds,dailyrainin,SolarRadiationWatts/m^2,SoftwareType,DateUTC
2013-02-06 00:00:00,39.1,31.8,29.96,SSE,158,1.9,2.0,75,0.00,,,0.00,0,TxWx,2013-02-06 05:00:00,
2013-02-06 00:05:00,39.3,31.9,29.96,SW,226,0.7,0.0,74,0.00,,,0.00,0,TxWx,2013-02-06 05:05:00,
2013-02-06 00:10:00,39.2,31.8,29.96,SSW,194,1.5,1.5,74,0.00,,,0.00,0,TxWx,2013-02-06 05:10:00,
2013-02-06 00:15:00,39.2,31.9,29.96,South,169,1.9,1.9,74,0.00,,,0.00,0,TxWx,2013-02-06 05:15:00,
2013-02-06 00:20:00,39.4,32.0,29.96,South,190,1.9,1.9,74,0.00,,,0.00,0,TxWx,2013-02-06 05:20:00,
2013-02-06 00:21:00,39.4,32.0,29.96,SSW,194,1.1,1.1,74,0.00,,,0.00,0,TxWx,2013-02-06 05:21:00,
2013-02-06 00:25:00,39.6,32.2,29.96,SSE,157,1.9,1.9,74,0.00,,,0.00,0,TxWx,2013-02-06 05:25:00,
2013-02-06 00:26:00,39.6,32.2,29.96,SSE,162,1.5,1.5,74,0.00,,,0.00,0,TxWx,2013-02-06 05:26:00,
2013-02-06 00:30:00,39.7,32.3,29.96,SSW,195,0.7,1.0,74,0.00,,,0.00,0,TxWx,2013-02-06 05:30:00,
2013-02-06 00:31:00,39.7,32.3,29.96,SW,235,0.7,0.0,74,0.00,,,0.00,0,TxWx,2013-02-06 05:31:00,
2013-02-06 00:35:00,39.6,32.3,29.96,SSW,195,0.3,0.0,74,0.00,,,0.00,0,TxWx,2013-02-06 05:35:00,
2013-02-06 00:36:00,39.6,32.3,29.96,SSW,203,0.7,0.0,74,0.00,,,0.00,0,TxWx,2013-02-06 05:36:00,
2013-02-06 00:37:00,39.6,32.3,29.96,SSW,210,2.3,2.3,74,0.00,,,0.00,0,TxWx,2013-02-06 05:37:00,
2013-02-06 00:40:00,39.6,32.3,29.96,SSE,149,3.0,3.0,74,0.00,,,0.00,0,TxWx,2013-02-06 05:40:00,
2013-02-06 00:41:00,39.6,32.3,29.96,South,189,3.4,3.4,74,0.00,,,0.00,0,TxWx,2013-02-06 05:41:00,
2013-02-06 00:42:00,39.5,32.2,29.96,SSE,164,1.9,2.0,74,0.00,,,0.00,0,TxWx,2013-02-06 05:42:00,
2013-02-06 00:46:00,39.3,32.1,29.96,South,189,1.9,2.0,75,0.00,,,0.00,0,TxWx,2013-02-06 05:46:00,
2013-02-06 00:47:00,39.3,32.2,29.96,SSW,193,1.1,1.1,75,0.00,,,0.00,0,TxWx,2013-02-06 05:47:00,
2013-02-06 00:51:00,39.1,32.0,29.96,SSE,160,2.3,2.3,75,0.00,,,0.00,0,TxWx,2013-02-06 05:51:00,
2013-02-06 00:52:00,39.1,32.1,29.96,South,190,1.5,1.5,75,0.00,,,0.00,0,TxWx,2013-02-06 05:52:00,
2013-02-06 00:56:00,39.2,32.3,29.96,South,176,1.5,1.5,75,0.00,,,0.00,0,TxWx,2013-02-06 05:56:00,
2013-02-06 00:57:00,39.1,32.2,29.96,SSE,158,1.9,2.0,75,0.00,,,0.00,0,TxWx,2013-02-06 05:57:00,
2013-02-06 01:01:00,39.1,32.2,29.96,SSE,166,1.5,1.5,76,0.00,,,0.00,0,TxWx,2013-02-06 06:01:00,
2013-02-06 01:02:00,39.2,32.3,29.96,South,172,1.5,1.5,76,0.00,,,0.00,0,TxWx,2013-02-06 06:02:00,
2013-02-06 01:06:00,39.0,32.2,29.97,South,173,1.5,1.5,76,0.00,,,0.00,0,TxWx,2013-02-06 06:06:00,
2013-02-06 01:07:00,38.9,32.2,29.97,WSW,240,1.1,1.1,76,0.00,,,0.00,0,TxWx,2013-02-06 06:07:00,
2013-02-06 01:13:00,39.3,32.5,29.97,SE,140,1.1,1.1,76,0.00,,,0.00,0,TxWx,2013-02-06 06:13:00,
2013-02-06 01:14:00,39.3,32.5,29.97,SSW,197,1.1,1.1,76,0.00,,,0.00,0,TxWx,2013-02-06 06:14:00,
2013-02-06 01:18:00,39.2,32.4,29.97,South,174,0.3,0.0,76,0.00,,,0.00,0,TxWx,2013-02-06 06:18:00,
2013-02-06 01:19:00,39.2,32.4,29.97,SSW,196,0.7,1.0,76,0.00,,,0.00,0,TxWx,2013-02-06 06:19:00,
2013-02-06 01:23:00,39.2,32.5,29.97,SW,215,1.9,1.9,76,0.00,,,0.00,0,TxWx,2013-02-06 06:23:00,
2013-02-06 01:24:00,39.2,32.5,29.97,SW,234,2.3,2.3,76,0.00,,,0.00,0,TxWx,2013-02-06 06:24:00,
2013-02-06 01:28:00,39.1,32.4,29.97,South,181,1.5,1.5,76,0.00,,,0.00,0,TxWx,2013-02-06 06:28:00,
2013-02-06 01:29:00,39.2,32.5,29.97,South,186,0.7,0.0,76,0.00,,,0.00,0,TxWx,2013-02-06 06:29:00,
2013-02-06 01:30:00,39.2,32.4,29.97,SW,229,0.3,0.0,76,0.00,,,0.00,0,TxWx,2013-02-06 06:30:00,
2013-02-06 01:33:00,39.0,32.3,29.97,South,180,1.5,1.5,76,0.00,,,0.00,0,TxWx,2013-02-06 06:33:00,
2013-02-06 01:34:00,39.0,32.4,29.97,SSW,194,1.5,1.5,76,0.00,,,0.00,0,TxWx,2013-02-06 06:34:00,
2013-02-06 01:35:00,39.0,32.4,29.97,South,188,0.7,1.0,76,0.00,,,0.00,0,TxWx,2013-02-06 06:35:00,
2013-02-06 01:39:00,39.3,32.5,29.97,South,179,1.1,1.1,76,0.00,,,0.00,0,TxWx,2013-02-06 06:39:00,
2013-02-06 01:40:00,39.5,32.5,29.97,WSW,251,0.7,0.0,75,0.00,,,0.00,0,TxWx,2013-02-06 06:40:00,
2013-02-06 01:44:00,39.2,32.3,29.97,SW,228,0.7,0.0,76,0.00,,,0.00,0,TxWx,2013-02-06 06:44:00,
2013-02-06 01:45:00,39.1,32.2,29.97,SW,217,0.7,0.0,76,0.00,,,0.00,0,TxWx,2013-02-06 06:45:00,
2013-02-06 01:49:00,39.2,32.4,29.97,South,185,1.5,1.5,76,0.00,,,0.00,0,TxWx,2013-02-06 06:49:00,
2013-02-06 01:50:00,39.2,32.4,29.97,SSW,208,0.7,1.0,76,0.00,,,0.00,0,TxWx,2013-02-06 06:50:00,
2013-02-06 01:54:00,39.1,32.2,29.97,South,186,0.7,1.0,75,0.00,,,0.00,0,TxWx,2013-02-06 06:54:00,
2013-02-06 01:55:00,39.3,32.4,29.97,SSW,209,1.9,1.9,75,0.00,,,0.00,0,TxWx,2013-02-06 06:55:00,
2013-02-06 01:56:00,39.3,32.3,29.97,SSW,203,1.1,1.1,75,0.00,,,0.00,0,TxWx,2013-02-06 06:56:00,
2013-02-06 01:59:00,39.7,32.4,29.97,SW,219,1.5,1.5,74,0.00,,,0.00,0,TxWx,2013-02-06 06:59:00,
2013-02-06 02:00:00,39.8,32.4,29.97,SSW,208,1.1,1.1,74,0.00,,,0.00,0,TxWx,2013-02-06 07:00:00,
2013-02-06 02:01:00,39.8,32.4,29.97,SW,220,0.7,0.0,74,0.00,,,0.00,0,TxWx,2013-02-06 07:01:00,
2013-02-06 02:04:00,39.6,32.1,29.97,WSW,244,1.1,1.1,74,0.00,,,0.00,0,TxWx,2013-02-06 07:04:00,
2013-02-06 02:05:00,39.5,32.1,29.96,WSW,245,0.7,0.0,74,0.00,,,0.00,0,TxWx,2013-02-06 07:05:00,
2013-02-06 02:06:00,39.5,32.1,29.96,WSW,245,0.3,0.0,74,0.00,,,0.00,0,TxWx,2013-02-06 07:06:00,
2013-02-06 02:09:00,39.5,32.1,29.96,SSW,207,1.1,1.1,74,0.00,,,0.00,0,TxWx,2013-02-06 07:09:00,
2013-02-06 02:10:00,39.6,32.1,29.96,SSW,209,1.9,1.9,74,0.00,,,0.00,0,TxWx,2013-02-06 07:10:00,
2013-02-06 02:11:00,39.6,32.1,29.96,South,180,2.3,2.3,74,0.00,,,0.00,0,TxWx,2013-02-06 07:11:00,
2013-02-06 02:14:00,39.4,32.0,29.96,West,277,1.5,1.5,74,0.00,,,0.00,0,TxWx,2013-02-06 07:14:00,
2013-02-06 02:15:00,39.0,31.8,29.96,SSW,210,1.9,1.9,75,0.00,,,0.00,0,TxWx,2013-02-06 07:15:00,
2013-02-06 02:16:00,39.1,31.9,29.96,SSW,201,1.1,1.1,75,0.00,,,0.00,0,TxWx,2013-02-06 07:16:00,
2013-02-06 02:19:00,39.6,32.4,29.97,SSW,197,2.3,2.3,75,0.00,,,0.00,0,TxWx,2013-02-06 07:19:00,
2013-02-06 02:21:00,39.8,32.4,29.97,South,174,1.5,1.5,74,0.00,,,0.00,0,TxWx,2013-02-06 07:21:00,
2013-02-06 02:24:00,39.9,32.1,29.96,South,186,2.6,3.0,73,0.00,,,0.00,0,TxWx,2013-02-06 07:24:00,
2013-02-06 02:26:00,39.8,31.9,29.96,West,261,1.5,1.5,73,0.00,,,0.00,0,TxWx,2013-02-06 07:26:00,
2013-02-06 02:27:00,39.8,31.9,29.96,SW,216,1.9,1.9,73,0.00,,,0.00,0,TxWx,2013-02-06 07:27:00,
2013-02-06 02:30:00,39.7,32.1,29.97,WSW,258,1.1,1.1,73,0.00,,,0.00,0,TxWx,2013-02-06 07:30:00,
2013-02-06 02:31:00,39.5,32.0,29.97,West,276,0.7,0.0,74,0.00,,,0.00,0,TxWx,2013-02-06 07:31:00,
2013-02-06 02:32:00,39.5,32.0,29.97,WNW,285,1.5,2.0,74,0.00,,,0.00,0,TxWx,2013-02-06 07:32:00,
2013-02-06 02:35:00,39.2,31.8,29.97,SW,214,1.5,1.5,74,0.00,,,0.00,0,TxWx,2013-02-06 07:35:00,
2013-02-06 02:36:00,39.1,31.8,29.97,South,177,1.5,1.5,74,0.00,,,0.00,0,TxWx,2013-02-06 07:36:00,
2013-02-06 02:37:00,39.1,31.8,29.97,SW,217,1.5,1.5,74,0.00,,,0.00,0,TxWx,2013-02-06 07:37:00,
2013-02-06 02:40:00,39.6,32.2,29.97,South,191,1.5,1.5,74,0.00,,,0.00,0,TxWx,2013-02-06 07:40:00,
2013-02-06 02:41:00,39.9,32.3,29.97,South,180,3.4,3.4,74,0.00,,,0.00,0,TxWx,2013-02-06 07:41:00,
2013-02-06 02:42:00,39.9,32.3,29.97,SW,216,1.9,1.9,74,0.00,,,0.00,0,TxWx,2013-02-06 07:42:00,
2013-02-06 02:45:00,40.0,32.2,29.97,SSW,209,1.9,1.9,73,0.00,,,0.00,0,TxWx,2013-02-06 07:45:00,
2013-02-06 02:46:00,39.7,31.9,29.97,SSW,194,2.6,2.6,73,0.00,,,0.00,0,TxWx,2013-02-06 07:46:00,
2013-02-06 02:47:00,39.7,31.9,29.97,SSW,194,2.6,3.0,73,0.00,,,0.00,0,TxWx,2013-02-06 07:47:00,
2013-02-06 02:50:00,39.4,31.8,29.97,West,264,2.3,2.3,73,0.00,,,0.00,0,TxWx,2013-02-06 07:50:00,
2013-02-06 02:52:00,39.2,31.5,29.97,SW,224,0.7,1.0,73,0.00,,,0.00,0,TxWx,2013-02-06 07:52:00,
2013-02-06 02:56:00,38.9,32.0,29.97,SSE,164,2.3,2.3,75,0.00,,,0.00,0,TxWx,2013-02-06 07:56:00,
2013-02-06 02:57:00,38.9,32.0,29.97,South,176,2.3,2.3,75,0.00,,,0.00,0,TxWx,2013-02-06 07:57:00,
2013-02-06 02:58:00,39.1,32.2,29.97,West,269,0.7,1.0,76,0.00,,,0.00,0,TxWx,2013-02-06 07:58:00,
2013-02-06 03:01:00,38.9,31.8,29.97,South,169,1.5,1.5,75,0.00,,,0.00,0,TxWx,2013-02-06 08:01:00,
2013-02-06 03:02:00,38.9,31.8,29.97,South,185,1.9,1.9,75,0.00,,,0.00,0,TxWx,2013-02-06 08:02:00,
2013-02-06 03:03:00,38.9,31.9,29.97,SSW,213,1.9,0.0,75,0.00,,,0.00,0,TxWx,2013-02-06 08:03:00,
2013-02-06 03:06:00,39.3,32.5,29.97,SW,230,1.5,1.5,76,0.00,,,0.00,0,TxWx,2013-02-06 08:06:00,
2013-02-06 03:07:00,39.2,32.4,29.97,SW,222,1.1,1.1,76,0.00,,,0.00,0,TxWx,2013-02-06 08:07:00,
2013-02-06 03:08:00,39.0,32.2,29.97,WSW,244,0.7,0.0,76,0.00,,,0.00,0,TxWx,2013-02-06 08:08:00,
2013-02-06 03:12:00,38.8,32.1,29.98,South,183,2.6,3.0,76,0.00,,,0.00,0,TxWx,2013-02-06 08:12:00,
2013-02-06 03:13:00,38.9,32.2,29.98,WSW,237,1.9,1.9,76,0.00,,,0.00,0,TxWx,2013-02-06 08:13:00,
2013-02-06 03:17:00,38.8,32.1,29.98,SW,222,0.7,0.0,76,0.00,,,0.00,0,TxWx,2013-02-06 08:17:00,
2013-02-06 03:18:00,38.4,31.7,29.98,South,182,1.1,1.1,76,0.00,,,0.00,0,TxWx,2013-02-06 08:18:00,
2013-02-06 03:22:00,38.6,32.0,29.98,SW,217,0.7,1.0,76,0.00,,,0.00,0,TxWx,2013-02-06 08:22:00,
2013-02-06 03:23:00,38.6,32.0,29.98,South,183,0.7,0.0,76,0.00,,,0.00,0,TxWx,2013-02-06 08:23:00,
2013-02-06 03:24:00,38.5,32.0,29.98,SW,216,0.7,0.0,77,0.00,,,0.00,0,TxWx,2013-02-06 08:24:00,
2013-02-06 03:27:00,38.5,32.0,29.98,South,175,1.1,1.1,77,0.00,,,0.00,0,TxWx,2013-02-06 08:27:00,
2013-02-06 03:28:00,38.5,32.1,29.98,SSW,210,1.1,1.1,77,0.00,,,0.00,0,TxWx,2013-02-06 08:28:00,
2013-02-06 03:29:00,38.6,32.1,29.98,South,173,1.9,1.9,77,0.00,,,0.00,0,TxWx,2013-02-06 08:29:00,
2013-02-06 03:32:00,38.6,32.0,29.98,SW,229,0.3,0.0,76,0.00,,,0.00,0,TxWx,2013-02-06 08:32:00,
2013-02-06 03:33:00,38.6,32.0,29.98,SW,229,0.3,0.0,76,0.00,,,0.00,0,TxWx,2013-02-06 08:33:00,
2013-02-06 03:34:00,38.5,31.8,29.98,South,189,3.4,3.4,76,0.00,,,0.00,0,TxWx,2013-02-06 08:34:00,
2013-02-06 03:37:00,38.7,32.3,29.98,SSE,166,1.1,1.1,77,0.00,,,0.00,0,TxWx,2013-02-06 08:37:00,
2013-02-06 03:38:00,38.7,32.3,29.98,SSE,154,1.9,1.9,77,0.00,,,0.00,0,TxWx,2013-02-06 08:38:00,
2013-02-06 03:39:00,38.7,32.4,29.98,South,173,1.1,1.1,77,0.00,,,0.00,0,TxWx,2013-02-06 08:39:00,
2013-02-06 03:42:00,38.7,32.4,29.99,South,186,1.5,1.5,78,0.00,,,0.00,0,TxWx,2013-02-06 08:42:00,
2013-02-06 03:43:00,38.6,32.4,29.99,SSW,200,1.5,1.5,78,0.00,,,0.00,0,TxWx,2013-02-06 08:43:00,
2013-02-06 03:44:00,38.7,32.6,29.99,South,190,0.3,0.0,78,0.00,,,0.00,0,TxWx,2013-02-06 08:44:00,
2013-02-06 03:47:00,38.7,32.6,29.99,SSW,196,1.1,1.1,78,0.00,,,0.00,0,TxWx,2013-02-06 08:47:00,
2013-02-06 03:48:00,38.5,32.6,29.99,South,176,1.1,1.1,78,0.00,,,0.00,0,TxWx,2013-02-06 08:48:00,
2013-02-06 03:49:00,38.5,32.8,29.99,South,170,1.5,1.5,79,0.00,,,0.00,0,TxWx,2013-02-06 08:49:00,
2013-02-06 03:53:00,38.6,32.8,29.99,SSW,209,3.0,3.0,79,0.00,,,0.00,0,TxWx,2013-02-06 08:53:00,
2013-02-06 03:54:00,38.5,32.8,29.99,SSW,198,3.4,3.4,79,0.00,,,0.00,0,TxWx,2013-02-06 08:54:00,
2013-02-06 03:58:00,38.6,32.7,29.99,SSE,165,1.5,1.5,79,0.00,,,0.00,0,TxWx,2013-02-06 08:58:00,
2013-02-06 03:59:00,38.6,32.7,29.99,SW,217,2.3,2.3,79,0.00,,,0.00,0,TxWx,2013-02-06 08:59:00,
2013-02-06 04:03:00,38.4,32.7,29.99,South,181,1.5,1.5,79,0.00,,,0.00,0,TxWx,2013-02-06 09:03:00,
2013-02-06 04:04:00,38.1,32.4,29.99,SSW,194,2.3,3.0,79,0.00,,,0.00,0,TxWx,2013-02-06 09:04:00,
2013-02-06 04:08:00,38.2,32.4,29.99,SW,216,3.8,4.0,79,0.00,,,0.00,0,TxWx,2013-02-06 09:08:00,
2013-02-06 04:09:00,38.0,32.3,29.99,South,180,1.1,1.1,79,0.00,,,0.00,0,TxWx,2013-02-06 09:09:00,
2013-02-06 04:10:00,38.0,32.3,29.99,SSW,205,2.6,2.6,79,0.00,,,0.00,0,TxWx,2013-02-06 09:10:00,
2013-02-06 04:13:00,38.1,32.1,29.99,SSW,213,2.6,2.6,78,0.00,,,0.00,0,TxWx,2013-02-06 09:13:00,
2013-02-06 04:14:00,38.0,32.1,29.99,South,190,2.3,2.3,78,0.00,,,0.00,0,TxWx,2013-02-06 09:14:00,
2013-02-06 04:15:00,38.0,32.1,29.99,South,173,1.5,1.5,78,0.00,,,0.00,0,TxWx,2013-02-06 09:15:00,
2013-02-06 04:18:00,38.2,32.1,29.99,SW,226,0.3,0.0,78,0.00,,,0.00,0,TxWx,2013-02-06 09:18:00,
2013-02-06 04:19:00,38.1,32.0,29.99,SW,223,2.3,2.3,78,0.00,,,0.00,0,TxWx,2013-02-06 09:19:00,
2013-02-06 04:20:00,38.1,32.0,29.99,SSW,213,2.6,3.0,78,0.00,,,0.00,0,TxWx,2013-02-06 09:20:00,
2013-02-06 04:23:00,37.6,31.7,29.99,SSW,206,1.9,1.9,79,0.00,,,0.00,0,TxWx,2013-02-06 09:23:00,
2013-02-06 04:24:00,37.6,31.7,29.99,South,176,1.9,1.9,79,0.00,,,0.00,0,TxWx,2013-02-06 09:24:00,
2013-02-06 04:25:00,37.6,31.7,29.99,SW,221,2.3,2.3,79,0.00,,,0.00,0,TxWx,2013-02-06 09:25:00,
2013-02-06 04:28:00,37.4,31.7,29.99,South,183,0.0,0.0,79,0.00,,,0.00,0,TxWx,2013-02-06 09:28:00,
2013-02-06 04:30:00,37.4,31.7,29.99,South,183,0.0,0.0,79,0.00,,,0.00,0,TxWx,2013-02-06 09:30:00,
2013-02-06 04:34:00,36.6,31.0,30.00,SSE,164,1.1,1.1,80,0.00,,,0.00,0,TxWx,2013-02-06 09:34:00,
2013-02-06 04:35:00,36.5,31.1,30.00,SSW,196,0.3,0.0,80,0.00,,,0.00,0,TxWx,2013-02-06 09:35:00,
2013-02-06 04:39:00,36.5,31.1,30.00,South,185,0.0,0.0,80,0.00,,,0.00,0,TxWx,2013-02-06 09:39:00,
2013-02-06 04:40:00,36.5,31.1,30.00,SSW,197,0.0,0.0,80,0.00,,,0.00,0,TxWx,2013-02-06 09:40:00,
2013-02-06 04:41:00,36.4,31.1,30.00,SW,219,0.3,0.0,80,0.00,,,0.00,0,TxWx,2013-02-06 09:41:00,
2013-02-06 04:44:00,36.2,31.0,30.00,South,172,0.7,1.0,81,0.00,,,0.00,0,TxWx,2013-02-06 09:44:00,
2013-02-06 04:45:00,36.2,31.0,30.00,South,172,0.7,1.0,81,0.00,,,0.00,0,TxWx,2013-02-06 09:45:00,
2013-02-06 04:46:00,36.3,31.0,30.00,South,173,0.7,0.0,81,0.00,,,0.00,0,TxWx,2013-02-06 09:46:00,
2013-02-06 04:50:00,36.4,31.0,30.00,SW,217,0.0,0.0,80,0.00,,,0.00,0,TxWx,2013-02-06 09:50:00,
2013-02-06 04:51:00,36.2,30.7,30.00,West,264,0.0,0.0,80,0.00,,,0.00,0,TxWx,2013-02-06 09:51:00,
2013-02-06 04:52:00,36.1,30.8,30.00,West,263,0.0,0.0,80,0.00,,,0.00,0,TxWx,2013-02-06 09:52:00,
2013-02-06 04:55:00,36.0,30.8,30.00,ESE,118,0.0,0.0,81,0.00,,,0.00,0,TxWx,2013-02-06 09:55:00,
2013-02-06 04:56:00,35.9,30.8,30.00,ESE,119,1.1,1.1,81,0.00,,,0.00,0,TxWx,2013-02-06 09:56:00,
2013-02-06 04:57:00,35.9,30.8,30.00,ESE,119,0.7,1.0,81,0.00,,,0.00,0,TxWx,2013-02-06 09:57:00,
2013-02-06 05:00:00,36.2,31.0,30.00,NNE,28,0.0,0.0,81,0.00,,,0.00,0,TxWx,2013-02-06 10:00:00,
2013-02-06 05:01:00,36.3,31.0,30.00,NE,38,0.0,0.0,81,0.00,,,0.00,0,TxWx,2013-02-06 10:01:00,
2013-02-06 05:02:00,36.3,31.0,30.00,NE,38,0.0,0.0,81,0.00,,,0.00,0,TxWx,2013-02-06 10:02:00,
2013-02-06 05:05:00,36.2,30.7,30.00,SSE,162,0.7,1.0,80,0.00,,,0.00,0,TxWx,2013-02-06 10:05:00,
2013-02-06 05:06:00,36.1,30.6,30.00,South,179,2.3,2.3,80,0.00,,,0.00,0,TxWx,2013-02-06 10:06:00,
2013-02-06 05:07:00,36.2,30.7,30.00,South,173,1.9,1.9,80,0.00,,,0.00,0,TxWx,2013-02-06 10:07:00,
2013-02-06 05:10:00,36.5,31.0,30.00,NNW,336,1.5,1.5,80,0.00,,,0.00,0,TxWx,2013-02-06 10:10:00,
2013-02-06 05:12:00,36.5,30.8,30.00,South,177,1.1,1.1,79,0.00,,,0.00,0,TxWx,2013-02-06 10:12:00,
2013-02-06 05:15:00,36.2,30.4,30.00,SE,145,1.1,1.1,79,0.00,,,0.00,0,TxWx,2013-02-06 10:15:00,
2013-02-06 05:17:00,36.3,30.5,30.01,SSE,161,0.7,1.0,79,0.00,,,0.00,0,TxWx,2013-02-06 10:17:00,
2013-02-06 05:20:00,35.9,30.3,30.01,SSE,154,0.3,0.0,79,0.00,,,0.00,0,TxWx,2013-02-06 10:20:00,
2013-02-06 05:22:00,36.0,30.4,30.01,SSE,154,0.7,0.0,79,0.00,,,0.00,0,TxWx,2013-02-06 10:22:00,
2013-02-06 05:25:00,35.7,30.2,30.01,SSE,155,0.7,0.0,80,0.00,,,0.00,0,TxWx,2013-02-06 10:25:00,
2013-02-06 05:26:00,35.7,30.2,30.01,SSE,155,0.3,0.0,80,0.00,,,0.00,0,TxWx,2013-02-06 10:26:00,
2013-02-06 05:27:00,35.6,30.1,30.01,SSE,154,0.0,0.0,80,0.00,,,0.00,0,TxWx,2013-02-06 10:27:00,
2013-02-06 05:31:00,35.8,30.5,30.01,South,170,0.7,0.0,80,0.00,,,0.00,0,TxWx,2013-02-06 10:31:00,
2013-02-06 05:32:00,35.7,30.2,30.01,SSE,158,1.1,1.1,80,0.00,,,0.00,0,TxWx,2013-02-06 10:32:00,
2013-02-06 05:36:00,35.6,30.2,30.01,South,180,1.5,1.5,80,0.00,,,0.00,0,TxWx,2013-02-06 10:36:00,
2013-02-06 05:37:00,35.7,30.2,30.01,SSE,168,0.0,0.0,80,0.00,,,0.00,0,TxWx,2013-02-06 10:37:00,
2013-02-06 05:38:00,35.7,30.2,30.01,SSE,163,0.0,0.0,80,0.00,,,0.00,0,TxWx,2013-02-06 10:38:00,
2013-02-06 05:41:00,35.6,30.0,30.01,SSE,162,0.0,0.0,80,0.00,,,0.00,0,TxWx,2013-02-06 10:41:00,
2013-02-06 05:42:00,35.4,29.9,30.01,South,175,0.3,0.0,80,0.00,,,0.00,0,TxWx,2013-02-06 10:42:00,
2013-02-06 05:45:00,35.2,29.9,30.01,SSE,164,0.3,0.0,80,0.00,,,0.00,0,TxWx,2013-02-06 10:45:00,
2013-02-06 05:46:00,35.2,29.9,30.01,SE,143,0.7,1.0,80,0.00,,,0.00,0,TxWx,2013-02-06 10:46:00,
2013-02-06 05:47:00,35.2,29.9,30.01,SSE,159,1.1,1.1,80,0.00,,,0.00,0,TxWx,2013-02-06 10:47:00,
2013-02-06 05:51:00,34.9,29.6,30.02,South,178,0.0,0.0,80,0.00,,,0.00,0,TxWx,2013-02-06 10:51:00,
2013-02-06 05:52:00,34.7,29.6,30.02,SSW,198,1.1,1.1,81,0.00,,,0.00,0,TxWx,2013-02-06 10:52:00,
2013-02-06 05:56:00,34.9,29.7,30.02,NE,36,0.0,0.0,81,0.00,,,0.00,0,TxWx,2013-02-06 10:56:00,
2013-02-06 05:57:00,34.7,29.6,30.02,WSW,253,1.1,1.1,81,0.00,,,0.00,0,TxWx,2013-02-06 10:57:00,
2013-02-06 06:01:00,34.7,29.7,30.02,South,178,0.0,0.0,81,0.00,,,0.00,0,TxWx,2013-02-06 11:01:00,
2013-02-06 06:02:00,34.7,29.7,30.02,East,94,1.1,1.1,81,0.00,,,0.00,0,TxWx,2013-02-06 11:02:00,
2013-02-06 06:03:00,34.7,29.7,30.02,NW,304,0.3,0.0,81,0.00,,,0.00,0,TxWx,2013-02-06 11:03:00,
2013-02-06 06:06:00,34.9,29.7,30.02,South,170,1.1,1.1,81,0.00,,,0.00,0,TxWx,2013-02-06 11:06:00,
2013-02-06 06:07:00,34.9,29.7,30.02,South,171,0.3,0.0,81,0.00,,,0.00,0,TxWx,2013-02-06 11:07:00,
2013-02-06 06:08:00,34.9,29.7,30.02,SSE,151,0.7,0.0,81,0.00,,,0.00,0,TxWx,2013-02-06 11:08:00,
2013-02-06 06:11:00,35.0,29.8,30.02,SSW,203,0.7,1.0,81,0.00,,,0.00,0,TxWx,2013-02-06 11:11:00,
2013-02-06 06:13:00,35.0,29.7,30.03,South,179,1.1,1.1,80,0.00,,,0.00,0,TxWx,2013-02-06 11:13:00,
2013-02-06 06:16:00,35.0,29.6,30.03,SSE,166,1.1,1.1,80,0.00,,,0.00,0,TxWx,2013-02-06 11:16:00,
2013-02-06 06:18:00,35.1,29.7,30.03,South,178,0.3,0.0,80,0.00,,,0.00,0,TxWx,2013-02-06 11:18:00,
2013-02-06 06:19:00,35.1,29.5,30.03,South,180,0.7,0.0,80,0.00,,,0.00,0,TxWx,2013-02-06 11:19:00,
2013-02-06 06:21:00,35.1,29.5,30.03,SSW,202,0.0,0.0,79,0.00,,,0.00,0,TxWx,2013-02-06 11:21:00,
2013-02-06 06:22:00,35.1,29.5,30.03,SSW,202,0.0,0.0,79,0.00,,,0.00,0,TxWx,2013-02-06 11:22:00,
2013-02-06 06:23:00,34.9,29.4,30.03,SSW,203,0.0,0.0,79,0.00,,,0.00,0,TxWx,2013-02-06 11:23:00,
2013-02-06 06:24:00,34.9,29.4,30.03,SSW,193,1.1,1.1,80,0.00,,,0.00,0,TxWx,2013-02-06 11:24:00,
2013-02-06 06:26:00,35.0,29.4,30.03,South,181,0.0,0.0,79,0.00,,,0.00,0,TxWx,2013-02-06 11:26:00,
2013-02-06 06:27:00,35.0,29.4,30.03,WNW,286,0.0,0.0,79,0.00,,,0.00,0,TxWx,2013-02-06 11:27:00,
2013-02-06 06:28:00,34.8,29.3,30.03,SSE,148,0.0,0.0,80,0.00,,,0.00,0,TxWx,2013-02-06 11:28:00,
2013-02-06 06:29:00,34.5,29.2,30.03,SSE,153,0.0,0.0,80,0.00,,,0.00,0,TxWx,2013-02-06 11:29:00,
2013-02-06 06:31:00,34.4,29.2,30.04,SSW,202,0.7,0.0,80,0.00,,,0.00,0,TxWx,2013-02-06 11:31:00,
2013-02-06 06:32:00,34.5,29.2,30.04,SSW,201,0.7,0.0,81,0.00,,,0.00,0,TxWx,2013-02-06 11:32:00,
2013-02-06 06:33:00,34.5,29.2,30.04,South,174,1.1,1.1,80,0.00,,,0.00,0,TxWx,2013-02-06 11:33:00,
2013-02-06 06:34:00,34.4,29.2,30.04,SSE,167,0.7,0.0,81,0.00,,,0.00,0,TxWx,2013-02-06 11:34:00,
2013-02-06 06:37:00,34.4,29.2,30.04,South,174,1.5,1.5,81,0.00,,,0.00,0,TxWx,2013-02-06 11:37:00,
2013-02-06 06:38:00,34.7,29.5,30.04,SSE,161,0.7,1.0,81,0.00,,,0.00,0,TxWx,2013-02-06 11:38:00,
2013-02-06 06:39:00,34.4,29.2,30.04,South,176,0.7,0.0,81,0.00,,,0.00,0,TxWx,2013-02-06 11:39:00,
2013-02-06 06:42:00,34.5,29.3,30.04,SSE,160,1.1,1.1,81,0.00,,,0.00,0,TxWx,2013-02-06 11:42:00,
2013-02-06 06:44:00,34.5,29.3,30.04,SSE,165,0.3,0.0,80,0.00,,,0.00,0,TxWx,2013-02-06 11:44:00,
2013-02-06 06:48:00,34.4,29.3,30.05,South,173,1.5,1.5,81,0.00,,,0.00,0,TxWx,2013-02-06 11:48:00,
2013-02-06 06:49:00,34.4,29.3,30.05,SSE,165,1.5,1.5,81,0.00,,,0.00,0,TxWx,2013-02-06 11:49:00,
2013-02-06 06:53:00,34.3,29.2,30.05,South,179,1.1,1.1,81,0.00,,,0.00,0,TxWx,2013-02-06 11:53:00,
2013-02-06 06:54:00,34.3,29.2,30.05,South,171,1.1,1.1,81,0.00,,,0.00,0,TxWx,2013-02-06 11:54:00,
2013-02-06 06:58:00,34.3,29.2,30.05,SSE,164,0.3,0.0,81,0.00,,,0.00,0,TxWx,2013-02-06 11:58:00,
2013-02-06 06:59:00,34.2,29.2,30.05,SSE,164,1.1,1.1,81,0.00,,,0.00,0,TxWx,2013-02-06 11:59:00,
2013-02-06 07:03:00,34.0,29.0,30.05,SSE,164,0.3,0.0,81,0.00,,,0.00,0,TxWx,2013-02-06 12:03:00,
2013-02-06 07:04:00,33.9,29.0,30.05,SSE,164,0.7,0.0,81,0.00,,,0.00,0,TxWx,2013-02-06 12:04:00,
2013-02-06 07:05:00,33.9,29.0,30.05,SSE,164,0.3,0.0,81,0.00,,,0.00,0,TxWx,2013-02-06 12:05:00,
2013-02-06 07:08:00,33.9,29.1,30.05,SSE,167,0.0,0.0,82,0.00,,,0.00,0,TxWx,2013-02-06 12:08:00,
2013-02-06 07:10:00,33.9,29.2,30.05,SSE,166,0.3,0.0,82,0.00,,,0.00,0,TxWx,2013-02-06 12:10:00,
2013-02-06 07:13:00,34.3,29.7,30.05,SSE,166,0.0,0.0,83,0.00,,,0.00,0,TxWx,2013-02-06 12:13:00,
2013-02-06 07:14:00,34.3,29.7,30.05,SSE,167,0.0,0.0,83,0.00,,,0.00,0,TxWx,2013-02-06 12:14:00,
2013-02-06 07:15:00,34.3,29.7,30.05,SSE,167,0.0,0.0,82,0.00,,,0.00,0,TxWx,2013-02-06 12:15:00,
2013-02-06 07:18:00,34.1,29.5,30.05,SSE,166,0.0,0.0,83,0.00,,,0.00,0,TxWx,2013-02-06 12:18:00,
2013-02-06 07:19:00,33.9,29.3,30.05,SSE,166,0.0,0.0,83,0.00,,,0.00,0,TxWx,2013-02-06 12:19:00,
2013-02-06 07:20:00,33.9,29.3,30.06,SSE,166,0.0,0.0,83,0.00,,,0.00,0,TxWx,2013-02-06 12:20:00,
2013-02-06 07:23:00,33.8,29.4,30.06,SSE,166,0.0,0.0,83,0.00,,,0.00,0,TxWx,2013-02-06 12:23:00,
2013-02-06 07:24:00,33.7,29.3,30.06,SSE,167,0.0,0.0,83,0.00,,,0.00,0,TxWx,2013-02-06 12:24:00,
2013-02-06 07:25:00,33.7,29.3,30.06,SSE,166,0.0,0.0,84,0.00,,,0.00,0,TxWx,2013-02-06 12:25:00,
2013-02-06 07:28:00,33.6,29.3,30.06,SSE,166,0.0,0.0,84,0.00,,,0.00,0,TxWx,2013-02-06 12:28:00,
2013-02-06 07:29:00,33.6,29.3,30.06,SSE,166,0.0,0.0,84,0.00,,,0.00,0,TxWx,2013-02-06 12:29:00,
2013-02-06 07:30:00,33.5,29.2,30.06,SSE,166,0.0,0.0,84,0.00,,,0.00,0,TxWx,2013-02-06 12:30:00,
2013-02-06 07:33:00,33.0,28.9,30.06,SSE,166,0.0,0.0,84,0.00,,,0.00,0,TxWx,2013-02-06 12:33:00,
2013-02-06 07:34:00,33.1,29.0,30.06,SSE,166,0.0,0.0,84,0.00,,,0.00,0,TxWx,2013-02-06 12:34:00,
2013-02-06 07:35:00,33.1,29.0,30.07,SSE,166,0.0,0.0,85,0.00,,,0.00,0,TxWx,2013-02-06 12:35:00,
2013-02-06 07:38:00,33.1,29.1,30.07,SSE,166,0.0,0.0,85,0.00,,,0.00,0,TxWx,2013-02-06 12:38:00,
2013-02-06 07:39:00,33.1,29.1,30.07,SSE,166,0.0,0.0,85,0.00,,,0.00,0,TxWx,2013-02-06 12:39:00,
2013-02-06 07:40:00,33.0,29.1,30.07,SSE,167,0.0,0.0,85,0.00,,,0.00,0,TxWx,2013-02-06 12:40:00,
2013-02-06 07:41:00,33.0,29.1,30.07,SSE,167,0.0,0.0,85,0.00,,,0.00,0,TxWx,2013-02-06 12:41:00,
2013-02-06 07:43:00,32.9,29.1,30.07,SSE,167,0.0,0.0,85,0.00,,,0.00,0,TxWx,2013-02-06 12:43:00,
2013-02-06 07:45:00,33.0,29.2,30.07,SSE,167,0.0,0.0,85,0.00,,,0.00,0,TxWx,2013-02-06 12:45:00,
2013-02-06 07:46:00,32.9,29.2,30.07,SSE,167,0.0,0.0,85,0.00,,,0.00,0,TxWx,2013-02-06 12:46:00,
2013-02-06 07:49:00,32.9,29.3,30.07,SSE,167,0.0,0.0,86,0.00,,,0.00,0,TxWx,2013-02-06 12:49:00,
2013-02-06 07:50:00,32.9,29.3,30.07,SSE,166,0.0,0.0,86,0.00,,,0.00,0,TxWx,2013-02-06 12:50:00,
2013-02-06 07:51:00,32.9,29.3,30.07,SSE,167,0.0,0.0,86,0.00,,,0.00,0,TxWx,2013-02-06 12:51:00,
2013-02-06 07:53:00,32.9,29.4,30.07,SSW,212,0.0,0.0,86,0.00,,,0.00,0,TxWx,2013-02-06 12:53:00,
2013-02-06 07:55:00,32.8,29.2,30.07,SW,214,0.0,0.0,86,0.00,,,0.00,0,TxWx,2013-02-06 12:55:00,
2013-02-06 07:56:00,32.5,28.9,30.07,SW,214,0.0,0.0,86,0.00,,,0.00,0,TxWx,2013-02-06 12:56:00,
2013-02-06 07:58:00,32.5,29.1,30.07,SW,214,0.0,0.0,87,0.00,,,0.00,0,TxWx,2013-02-06 12:58:00,
2013-02-06 08:00:00,32.4,29.1,30.07,SW,214,0.0,0.0,87,0.00,,,0.00,0,TxWx,2013-02-06 13:00:00,
2013-02-06 08:01:00,32.4,29.1,30.07,SW,214,0.0,0.0,87,0.00,,,0.00,0,TxWx,2013-02-06 13:01:00,
2013-02-06 08:02:00,32.4,29.1,30.07,SW,214,0.0,0.0,87,0.00,,,0.00,0,TxWx,2013-02-06 13:02:00,
2013-02-06 08:04:00,32.4,29.2,30.07,SW,214,0.0,0.0,88,0.00,,,0.00,0,TxWx,2013-02-06 13:04:00,
2013-02-06 08:05:00,32.4,29.4,30.07,SW,214,0.0,0.0,88,0.00,,,0.00,0,TxWx,2013-02-06 13:05:00,
2013-02-06 08:06:00,32.4,29.4,30.07,SW,214,0.0,0.0,88,0.00,,,0.00,0,TxWx,2013-02-06 13:06:00,
2013-02-06 08:07:00,32.5,29.4,30.07,SW,214,0.0,0.0,88,0.00,,,0.00,0,TxWx,2013-02-06 13:07:00,
2013-02-06 08:08:00,32.5,29.4,30.07,SW,214,0.0,0.0,88,0.00,,,0.00,0,TxWx,2013-02-06 13:08:00,
2013-02-06 08:11:00,32.5,29.4,30.07,SW,214,0.0,0.0,88,0.00,,,0.00,0,TxWx,2013-02-06 13:11:00,
2013-02-06 08:12:00,32.6,29.5,30.07,SW,214,0.0,0.0,88,0.00,,,0.00,0,TxWx,2013-02-06 13:12:00,
2013-02-06 08:14:00,32.6,29.6,30.07,SW,214,0.0,0.0,88,0.00,,,0.00,0,TxWx,2013-02-06 13:14:00,
2013-02-06 08:16:00,32.6,29.6,30.08,SW,214,0.0,0.0,88,0.00,,,0.00,0,TxWx,2013-02-06 13:16:00,
2013-02-06 08:17:00,32.6,29.5,30.08,SW,214,0.0,0.0,88,0.00,,,0.00,0,TxWx,2013-02-06 13:17:00,
2013-02-06 08:19:00,32.6,29.6,30.08,SW,214,0.0,0.0,88,0.00,,,0.00,0,TxWx,2013-02-06 13:19:00,
2013-02-06 08:21:00,32.6,29.5,30.08,SW,214,0.0,0.0,88,0.00,,,0.00,0,TxWx,2013-02-06 13:21:00,
2013-02-06 08:22:00,32.6,29.6,30.08,SW,214,0.0,0.0,88,0.00,,,0.00,0,TxWx,2013-02-06 13:22:00,
2013-02-06 08:24:00,32.7,29.6,30.08,SW,214,0.0,0.0,88,0.00,,,0.00,0,TxWx,2013-02-06 13:24:00,
2013-02-06 08:26:00,32.7,29.7,30.08,SW,214,0.0,0.0,88,0.00,,,0.00,0,TxWx,2013-02-06 13:26:00,
2013-02-06 08:27:00,32.9,29.8,30.08,SW,214,0.0,0.0,88,0.00,,,0.00,0,TxWx,2013-02-06 13:27:00,
2013-02-06 08:29:00,33.0,29.9,30.08,SW,214,0.0,0.0,88,0.00,,,0.00,0,TxWx,2013-02-06 13:29:00,
2013-02-06 08:31:00,33.1,29.9,30.08,SSW,207,1.9,1.9,87,0.00,,,0.00,0,TxWx,2013-02-06 13:31:00,
2013-02-06 08:32:00,32.9,29.7,30.08,SSW,205,0.3,0.0,87,0.00,,,0.00,0,TxWx,2013-02-06 13:32:00,
2013-02-06 08:33:00,33.0,29.7,30.08,SSW,204,0.3,0.0,87,0.00,,,0.00,0,TxWx,2013-02-06 13:33:00,
2013-02-06 08:34:00,33.1,29.8,30.08,SSW,196,0.3,0.0,87,0.00,,,0.00,0,TxWx,2013-02-06 13:34:00,
2013-02-06 08:36:00,33.3,29.9,30.08,SSW,196,0.0,0.0,87,0.00,,,0.00,0,TxWx,2013-02-06 13:36:00,
2013-02-06 08:37:00,33.4,29.9,30.08,SSW,196,0.0,0.0,87,0.00,,,0.00,0,TxWx,2013-02-06 13:37:00,
2013-02-06 08:38:00,33.4,29.9,30.08,SSW,196,0.0,0.0,86,0.00,,,0.00,0,TxWx,2013-02-06 13:38:00,
2013-02-06 08:39:00,33.4,29.8,30.08,SSW,197,0.3,0.0,86,0.00,,,0.00,0,TxWx,2013-02-06 13:39:00,
2013-02-06 08:41:00,33.5,29.8,30.08,SSW,196,0.3,0.0,86,0.00,,,0.00,0,TxWx,2013-02-06 13:41:00,
2013-02-06 08:42:00,33.6,29.8,30.08,SSW,196,0.3,0.0,85,0.00,,,0.00,0,TxWx,2013-02-06 13:42:00,
2013-02-06 08:43:00,33.6,29.8,30.08,SSW,196,0.3,0.0,85,0.00,,,0.00,0,TxWx,2013-02-06 13:43:00,
2013-02-06 08:44:00,33.7,29.8,30.08,SSW,196,0.3,0.0,85,0.00,,,0.00,0,TxWx,2013-02-06 13:44:00,
2013-02-06 08:46:00,33.8,29.8,30.08,SSW,196,0.0,0.0,84,0.00,,,0.00,0,TxWx,2013-02-06 13:46:00,
2013-02-06 08:48:00,33.9,29.8,30.08,SSW,196,0.0,0.0,84,0.00,,,0.00,0,TxWx,2013-02-06 13:48:00,
2013-02-06 08:49:00,33.9,29.8,30.08,SSW,196,0.0,0.0,84,0.00,,,0.00,0,TxWx,2013-02-06 13:49:00,
2013-02-06 08:52:00,34.1,29.6,30.08,SSW,196,0.0,0.0,83,0.00,,,0.00,0,TxWx,2013-02-06 13:52:00,
2013-02-06 08:53:00,34.2,29.5,30.08,SSW,196,0.0,0.0,82,0.00,,,0.00,0,TxWx,2013-02-06 13:53:00,
2013-02-06 08:54:00,34.2,29.5,30.08,SSW,196,0.0,0.0,82,0.00,,,0.00,0,TxWx,2013-02-06 13:54:00,
2013-02-06 08:57:00,34.3,29.4,30.08,SSW,196,0.0,0.0,82,0.00,,,0.00,0,TxWx,2013-02-06 13:57:00,
2013-02-06 08:58:00,34.4,29.3,30.08,SSW,204,0.0,0.0,81,0.00,,,0.00,0,TxWx,2013-02-06 13:58:00,
2013-02-06 08:59:00,34.4,29.3,30.08,SSW,203,0.0,0.0,81,0.00,,,0.00,0,TxWx,2013-02-06 13:59:00,
2013-02-06 09:02:00,34.0,29.0,30.08,SSW,197,0.7,0.0,81,0.00,,,0.00,0,TxWx,2013-02-06 14:02:00,
2013-02-06 09:04:00,34.2,28.7,30.08,SSW,205,0.0,0.0,80,0.00,,,0.00,0,TxWx,2013-02-06 14:04:00,
2013-02-06 09:07:00,34.2,28.5,30.08,SW,218,0.0,0.0,79,0.00,,,0.00,0,TxWx,2013-02-06 14:07:00,
2013-02-06 09:09:00,34.1,28.6,30.08,SW,225,0.0,0.0,79,0.00,,,0.00,0,TxWx,2013-02-06 14:09:00,
2013-02-06 09:10:00,34.1,28.6,30.08,SW,226,0.0,0.0,79,0.00,,,0.00,0,TxWx,2013-02-06 14:10:00,
2013-02-06 09:12:00,34.0,28.8,30.08,SW,226,0.0,0.0,80,0.00,,,0.00,0,TxWx,2013-02-06 14:12:00,
2013-02-06 09:14:00,34.0,28.8,30.08,SW,226,0.0,0.0,81,0.00,,,0.00,0,TxWx,2013-02-06 14:14:00,
2013-02-06 09:15:00,34.0,28.8,30.08,SW,226,0.0,0.0,81,0.00,,,0.00,0,TxWx,2013-02-06 14:15:00,
2013-02-06 09:17:00,33.8,28.8,30.08,SW,226,0.0,0.0,81,0.00,,,0.00,0,TxWx,2013-02-06 14:17:00,
2013-02-06 09:19:00,33.7,28.8,30.08,SW,226,0.0,0.0,82,0.00,,,0.00,0,TxWx,2013-02-06 14:19:00,
2013-02-06 09:20:00,33.7,28.8,30.08,SW,226,0.0,0.0,82,0.00,,,0.00,0,TxWx,2013-02-06 14:20:00,
2013-02-06 09:23:00,33.4,28.4,30.08,SW,226,0.0,0.0,81,0.00,,,0.00,0,TxWx,2013-02-06 14:23:00,
2013-02-06 09:24:00,33.3,28.3,30.08,SW,226,0.0,0.0,81,0.00,,,0.00,0,TxWx,2013-02-06 14:24:00,
2013-02-06 09:25:00,33.3,28.2,30.08,SW,226,0.0,0.0,81,0.00,,,0.00,0,TxWx,2013-02-06 14:25:00,
2013-02-06 09:28:00,33.4,28.3,30.08,SW,226,0.0,0.0,81,0.00,,,0.00,0,TxWx,2013-02-06 14:28:00,
2013-02-06 09:29:00,33.5,28.4,30.08,SW,226,0.0,0.0,81,0.00,,,0.00,0,TxWx,2013-02-06 14:29:00,
2013-02-06 09:30:00,33.5,28.4,30.08,SSE,160,0.0,0.0,81,0.00,,,0.00,0,TxWx,2013-02-06 14:30:00,
2013-02-06 09:31:00,33.5,28.4,30.08,SSE,160,0.0,0.0,81,0.00,,,0.00,0,TxWx,2013-02-06 14:31:00,
2013-02-06 09:33:00,33.7,28.6,30.08,SSE,160,0.0,0.0,81,0.00,,,0.00,0,TxWx,2013-02-06 14:33:00,
2013-02-06 09:35:00,33.7,28.4,30.08,SSE,160,0.0,0.0,80,0.00,,,0.00,0,TxWx,2013-02-06 14:35:00,
2013-02-06 09:38:00,34.0,28.3,30.08,SSE,160,0.0,0.0,79,0.00,,,0.00,0,TxWx,2013-02-06 14:38:00,
2013-02-06 09:40:00,34.0,28.4,30.08,SSE,160,0.0,0.0,79,0.00,,,0.00,0,TxWx,2013-02-06 14:40:00,
2013-02-06 09:41:00,34.1,28.4,30.08,SSE,160,0.0,0.0,79,0.00,,,0.00,0,TxWx,2013-02-06 14:41:00,
2013-02-06 09:43:00,34.4,28.3,30.08,SSE,160,0.0,0.0,78,0.00,,,0.00,0,TxWx,2013-02-06 14:43:00,
2013-02-06 09:45:00,34.7,28.6,30.08,SSE,160,0.0,0.0,78,0.00,,,0.00,0,TxWx,2013-02-06 14:45:00,
2013-02-06 09:46:00,34.7,28.6,30.08,SSE,160,0.0,0.0,78,0.00,,,0.00,0,TxWx,2013-02-06 14:46:00,
2013-02-06 09:48:00,35.2,28.4,30.08,SSE,166,0.0,0.0,76,0.00,,,0.00,0,TxWx,2013-02-06 14:48:00,
2013-02-06 09:50:00,35.3,28.2,30.08,SSE,166,0.0,0.0,75,0.00,,,0.00,0,TxWx,2013-02-06 14:50:00,
2013-02-06 09:51:00,35.3,28.2,30.08,SSE,166,0.0,0.0,75,0.00,,,0.00,0,TxWx,2013-02-06 14:51:00,
2013-02-06 09:54:00,35.5,27.6,30.08,SSE,166,0.0,0.0,72,0.00,,,0.00,0,TxWx,2013-02-06 14:54:00,
2013-02-06 09:55:00,35.6,27.2,30.08,South,170,0.0,0.0,71,0.00,,,0.00,0,TxWx,2013-02-06 14:55:00,
2013-02-06 09:56:00,35.7,27.3,30.08,South,176,0.0,0.0,71,0.00,,,0.00,0,TxWx,2013-02-06 14:56:00,
2013-02-06 09:59:00,35.8,27.0,30.08,SW,215,1.1,1.1,70,0.00,,,0.00,0,TxWx,2013-02-06 14:59:00,
2013-02-06 10:01:00,35.9,26.9,30.09,South,187,0.7,0.0,69,0.00,,,0.00,0,TxWx,2013-02-06 15:01:00,
2013-02-06 10:04:00,36.0,26.5,30.09,South,187,0.0,0.0,68,0.00,,,0.00,0,TxWx,2013-02-06 15:04:00,
2013-02-06 10:06:00,36.1,26.5,30.09,South,187,0.0,0.0,67,0.00,,,0.00,0,TxWx,2013-02-06 15:06:00,
2013-02-06 10:09:00,36.2,26.3,30.09,South,189,0.0,0.0,67,0.00,,,0.00,0,TxWx,2013-02-06 15:09:00,
2013-02-06 10:11:00,36.3,26.1,30.09,South,188,0.0,0.0,66,0.00,,,0.00,0,TxWx,2013-02-06 15:11:00,
2013-02-06 10:12:00,36.3,26.1,30.09,South,188,0.0,0.0,66,0.00,,,0.00,0,TxWx,2013-02-06 15:12:00,
2013-02-06 10:14:00,36.4,26.2,30.09,South,186,0.3,0.0,66,0.00,,,0.00,0,TxWx,2013-02-06 15:14:00,
2013-02-06 10:16:00,36.7,25.9,30.09,South,186,0.3,0.0,64,0.00,,,0.00,0,TxWx,2013-02-06 15:16:00,
2013-02-06 10:17:00,36.7,25.9,30.09,South,186,0.0,0.0,64,0.00,,,0.00,0,TxWx,2013-02-06 15:17:00,
2013-02-06 10:19:00,37.0,25.8,30.10,South,186,0.3,0.0,63,0.00,,,0.00,0,TxWx,2013-02-06 15:19:00,
2013-02-06 10:22:00,37.0,26.0,30.10,South,186,0.3,0.0,63,0.00,,,0.00,0,TxWx,2013-02-06 15:22:00,
2013-02-06 10:24:00,37.3,25.7,30.10,South,186,0.3,0.0,62,0.00,,,0.00,0,TxWx,2013-02-06 15:24:00,
2013-02-06 10:27:00,37.5,25.2,30.10,SSE,165,0.7,0.0,60,0.00,,,0.00,0,TxWx,2013-02-06 15:27:00,
2013-02-06 10:29:00,37.9,25.3,30.10,South,182,0.7,1.0,59,0.00,,,0.00,0,TxWx,2013-02-06 15:29:00,
2013-02-06 10:32:00,38.2,25.7,30.10,SSW,205,0.7,0.0,60,0.00,,,0.00,0,TxWx,2013-02-06 15:32:00,
2013-02-06 10:33:00,38.2,25.7,30.10,SSW,195,0.7,0.0,60,0.00,,,0.00,0,TxWx,2013-02-06 15:33:00,
2013-02-06 10:34:00,38.3,25.6,30.10,SSW,195,0.7,0.0,60,0.00,,,0.00,0,TxWx,2013-02-06 15:34:00,
2013-02-06 10:37:00,38.5,25.8,30.10,SSW,197,0.3,0.0,59,0.00,,,0.00,0,TxWx,2013-02-06 15:37:00,
2013-02-06 10:39:00,38.6,26.0,30.10,South,176,0.7,0.0,60,0.00,,,0.00,0,TxWx,2013-02-06 15:39:00,
2013-02-06 10:42:00,38.7,26.3,30.10,SSE,165,1.1,1.1,60,0.00,,,0.00,0,TxWx,2013-02-06 15:42:00,
2013-02-06 10:43:00,38.7,26.3,30.10,South,185,0.7,1.0,60,0.00,,,0.00,0,TxWx,2013-02-06 15:43:00,
2013-02-06 10:44:00,38.8,26.1,30.10,SSE,166,1.1,1.1,59,0.00,,,0.00,0,TxWx,2013-02-06 15:44:00,
2013-02-06 10:47:00,38.8,25.7,30.10,SSE,164,1.1,1.1,58,0.00,,,0.00,0,TxWx,2013-02-06 15:47:00,
2013-02-06 10:48:00,38.8,25.7,30.10,SSE,164,1.1,1.1,58,0.00,,,0.00,0,TxWx,2013-02-06 15:48:00,
2013-02-06 10:49:00,38.7,25.6,30.10,SSE,168,1.1,1.1,58,0.00,,,0.00,0,TxWx,2013-02-06 15:49:00,
2013-02-06 10:52:00,39.0,25.0,30.10,SSE,151,1.1,1.1,57,0.00,,,0.00,0,TxWx,2013-02-06 15:52:00,
2013-02-06 10:53:00,39.1,25.2,30.10,South,170,0.7,1.0,57,0.00,,,0.00,0,TxWx,2013-02-06 15:53:00,
2013-02-06 10:54:00,39.2,25.6,30.10,SSE,160,0.7,1.0,57,0.00,,,0.00,0,TxWx,2013-02-06 15:54:00,
2013-02-06 10:57:00,39.2,25.3,30.10,SSE,165,0.7,1.0,57,0.00,,,0.00,0,TxWx,2013-02-06 15:57:00,
2013-02-06 10:58:00,39.3,25.4,30.10,SSE,167,0.7,1.0,57,0.00,,,0.00,0,TxWx,2013-02-06 15:58:00,
2013-02-06 11:00:00,39.3,25.6,30.10,SSE,165,0.7,1.0,57,0.00,,,0.00,0,TxWx,2013-02-06 16:00:00,
2013-02-06 11:02:00,39.6,26.0,30.10,South,172,1.1,1.1,58,0.00,,,0.00,0,TxWx,2013-02-06 16:02:00,
2013-02-06 11:03:00,39.8,25.6,30.10,South,188,0.7,0.0,56,0.00,,,0.00,0,TxWx,2013-02-06 16:03:00,
2013-02-06 11:04:00,39.8,25.6,30.10,South,175,1.1,1.1,56,0.00,,,0.00,0,TxWx,2013-02-06 16:04:00,
2013-02-06 11:05:00,39.9,25.7,30.10,South,179,1.5,1.5,56,0.00,,,0.00,0,TxWx,2013-02-06 16:05:00,
2013-02-06 11:08:00,40.2,25.9,30.10,South,170,1.5,1.5,56,0.00,,,0.00,0,TxWx,2013-02-06 16:08:00,
2013-02-06 11:09:00,40.2,26.0,30.10,South,189,1.1,1.1,56,0.00,,,0.00,0,TxWx,2013-02-06 16:09:00,
2013-02-06 11:10:00,40.3,26.1,30.10,SSE,168,1.1,1.1,56,0.00,,,0.00,0,TxWx,2013-02-06 16:10:00,
2013-02-06 11:13:00,40.4,25.4,30.10,South,173,1.1,1.1,54,0.00,,,0.00,0,TxWx,2013-02-06 16:13:00,
2013-02-06 11:14:00,40.5,25.5,30.10,South,174,1.1,1.1,54,0.00,,,0.00,0,TxWx,2013-02-06 16:14:00,
2013-02-06 11:15:00,40.5,25.3,30.10,SSE,163,1.5,1.5,54,0.00,,,0.00,0,TxWx,2013-02-06 16:15:00,
2013-02-06 11:18:00,40.8,25.9,30.10,SSW,196,0.3,0.0,54,0.00,,,0.00,0,TxWx,2013-02-06 16:18:00,
2013-02-06 11:19:00,40.8,25.9,30.10,SSW,198,0.7,1.0,54,0.00,,,0.00,0,TxWx,2013-02-06 16:19:00,
2013-02-06 11:20:00,41.1,26.1,30.10,South,169,1.1,1.1,54,0.00,,,0.00,0,TxWx,2013-02-06 16:20:00,
2013-02-06 11:23:00,41.5,25.9,30.10,SSE,154,1.5,1.5,53,0.00,,,0.00,0,TxWx,2013-02-06 16:23:00,
2013-02-06 11:24:00,41.5,25.9,30.10,SSE,156,0.7,0.0,53,0.00,,,0.00,0,TxWx,2013-02-06 16:24:00,
2013-02-06 11:25:00,41.7,26.2,30.10,South,190,1.1,1.1,53,0.00,,,0.00,0,TxWx,2013-02-06 16:25:00,
2013-02-06 11:28:00,41.9,26.1,30.11,SSW,193,1.1,1.1,53,0.00,,,0.00,0,TxWx,2013-02-06 16:28:00,
2013-02-06 11:29:00,41.9,26.1,30.11,SSW,197,1.1,1.1,53,0.00,,,0.00,0,TxWx,2013-02-06 16:29:00,
2013-02-06 11:30:00,41.8,26.5,30.11,South,191,0.7,0.0,54,0.00,,,0.00,0,TxWx,2013-02-06 16:30:00,
2013-02-06 11:33:00,41.8,26.2,30.11,SSE,157,1.1,1.1,53,0.00,,,0.00,0,TxWx,2013-02-06 16:33:00,
2013-02-06 11:34:00,41.9,25.9,30.11,SSE,160,0.7,1.0,52,0.00,,,0.00,0,TxWx,2013-02-06 16:34:00,
2013-02-06 11:35:00,42.0,26.0,30.11,SSW,193,0.3,0.0,52,0.00,,,0.00,0,TxWx,2013-02-06 16:35:00,
2013-02-06 11:39:00,42.2,25.6,30.10,South,186,0.7,1.0,51,0.00,,,0.00,0,TxWx,2013-02-06 16:39:00,
2013-02-06 11:40:00,42.2,25.8,30.10,South,180,0.7,0.0,52,0.00,,,0.00,0,TxWx,2013-02-06 16:40:00,
2013-02-06 11:44:00,42.1,26.7,30.10,SW,223,0.7,0.0,54,0.00,,,0.00,0,TxWx,2013-02-06 16:44:00,
2013-02-06 11:45:00,42.6,25.9,30.10,West,281,1.5,1.5,51,0.00,,,0.00,0,TxWx,2013-02-06 16:45:00,
2013-02-06 11:49:00,42.8,26.3,30.11,SW,228,1.1,1.1,51,0.00,,,0.00,0,TxWx,2013-02-06 16:49:00,
2013-02-06 11:50:00,42.8,26.8,30.10,WSW,253,0.3,0.0,52,0.00,,,0.00,0,TxWx,2013-02-06 16:50:00,
2013-02-06 11:54:00,43.4,27.0,30.10,SW,217,1.5,1.5,52,0.00,,,0.00,0,TxWx,2013-02-06 16:54:00,
2013-02-06 11:55:00,43.7,26.2,30.11,WNW,285,1.1,1.1,49,0.00,,,0.00,0,TxWx,2013-02-06 16:55:00,
2013-02-06 11:56:00,43.7,26.2,30.11,WNW,283,1.1,1.1,49,0.00,,,0.00,0,TxWx,2013-02-06 16:56:00,
2013-02-06 11:59:00,44.2,26.0,30.10,SW,225,0.7,1.0,48,0.00,,,0.00,0,TxWx,2013-02-06 16:59:00,
2013-02-06 12:00:00,44.2,26.7,30.10,SSW,203,1.1,1.1,50,0.00,,,0.00,0,TxWx,2013-02-06 17:00:00,
2013-02-06 12:01:00,44.2,26.7,30.10,SSW,205,1.1,1.1,50,0.00,,,0.00,0,TxWx,2013-02-06 17:01:00,
2013-02-06 12:02:00,44.2,26.8,30.11,SW,231,0.7,0.0,49,0.00,,,0.00,0,TxWx,2013-02-06 17:02:00,
2013-02-06 12:04:00,44.6,25.6,30.10,West,265,0.0,0.0,46,0.00,,,0.00,0,TxWx,2013-02-06 17:04:00,
2013-02-06 12:06:00,44.7,25.7,30.10,West,265,0.0,0.0,47,0.00,,,0.00,0,TxWx,2013-02-06 17:06:00,
2013-02-06 12:07:00,44.9,26.3,30.10,West,281,0.0,0.0,47,0.00,,,0.00,0,TxWx,2013-02-06 17:07:00,
2013-02-06 12:09:00,44.8,26.4,30.10,South,175,1.1,1.1,48,0.00,,,0.00,0,TxWx,2013-02-06 17:09:00,
2013-02-06 12:11:00,44.6,26.7,30.10,South,175,0.7,0.0,49,0.00,,,0.00,0,TxWx,2013-02-06 17:11:00,
2013-02-06 12:12:00,44.7,25.9,30.10,South,176,1.1,1.1,47,0.00,,,0.00,0,TxWx,2013-02-06 17:12:00,
2013-02-06 12:14:00,44.8,25.8,30.10,WSW,256,1.5,1.5,46,0.00,,,0.00,0,TxWx,2013-02-06 17:14:00,
2013-02-06 12:16:00,45.0,26.0,30.10,SSW,202,0.7,0.0,47,0.00,,,0.00,0,TxWx,2013-02-06 17:16:00,
2013-02-06 12:17:00,45.1,26.1,30.10,SSW,200,1.5,1.5,46,0.00,,,0.00,0,TxWx,2013-02-06 17:17:00,
2013-02-06 12:20:00,45.4,25.5,30.10,West,270,1.5,1.5,45,0.00,,,0.00,0,TxWx,2013-02-06 17:20:00,
2013-02-06 12:21:00,45.8,26.0,30.09,SW,230,1.1,1.1,45,0.00,,,0.00,0,TxWx,2013-02-06 17:21:00,
2013-02-06 12:22:00,45.8,26.4,30.09,WSW,254,0.7,1.0,46,0.00,,,0.00,0,TxWx,2013-02-06 17:22:00,
2013-02-06 12:25:00,46.1,26.1,30.09,West,269,1.1,1.1,45,0.00,,,0.00,0,TxWx,2013-02-06 17:25:00,
2013-02-06 12:26:00,46.4,26.4,30.09,SSW,197,1.1,1.1,45,0.00,,,0.00,0,TxWx,2013-02-06 17:26:00,
2013-02-06 12:27:00,46.5,25.7,30.09,SSW,212,1.9,1.9,43,0.00,,,0.00,0,TxWx,2013-02-06 17:27:00,
2013-02-06 12:30:00,46.9,25.2,30.09,West,280,1.1,1.1,42,0.00,,,0.00,0,TxWx,2013-02-06 17:30:00,
2013-02-06 12:31:00,47.0,25.4,30.09,West,272,0.7,1.0,42,0.00,,,0.00,0,TxWx,2013-02-06 17:31:00,
2013-02-06 12:32:00,47.2,26.8,30.09,West,268,1.9,1.9,44,0.00,,,0.00,0,TxWx,2013-02-06 17:32:00,
2013-02-06 12:35:00,47.4,25.2,30.09,WSW,237,1.1,1.1,41,0.00,,,0.00,0,TxWx,2013-02-06 17:35:00,
2013-02-06 12:36:00,47.6,25.3,30.09,WNW,301,1.5,1.5,41,0.00,,,0.00,0,TxWx,2013-02-06 17:36:00,
2013-02-06 12:37:00,47.8,26.6,30.09,West,262,1.5,1.5,43,0.00,,,0.00,0,TxWx,2013-02-06 17:37:00,
2013-02-06 12:40:00,48.0,25.8,30.09,SW,215,1.1,1.1,41,0.00,,,0.00,0,TxWx,2013-02-06 17:40:00,
2013-02-06 12:41:00,47.9,24.4,30.09,South,187,1.5,1.5,39,0.00,,,0.00,0,TxWx,2013-02-06 17:41:00,
2013-02-06 12:42:00,47.9,24.1,30.09,SSW,208,1.9,1.9,39,0.00,,,0.00,0,TxWx,2013-02-06 17:42:00,
2013-02-06 12:45:00,48.0,24.1,30.09,SSW,199,0.7,0.0,38,0.00,,,0.00,0,TxWx,2013-02-06 17:45:00,
2013-02-06 12:46:00,48.1,24.5,30.09,WNW,286,0.3,0.0,39,0.00,,,0.00,0,TxWx,2013-02-06 17:46:00,
2013-02-06 12:47:00,48.1,24.5,30.09,WNW,286,0.3,0.0,39,0.00,,,0.00,0,TxWx,2013-02-06 17:47:00,
2013-02-06 12:48:00,48.3,25.4,30.09,SSW,195,0.7,0.0,40,0.00,,,0.00,0,TxWx,2013-02-06 17:48:00,
2013-02-06 12:51:00,48.5,25.9,30.09,WNW,302,1.1,1.1,41,0.00,,,0.00,0,TxWx,2013-02-06 17:51:00,
2013-02-06 12:52:00,48.5,25.5,30.09,SW,236,1.9,1.9,40,0.00,,,0.00,0,TxWx,2013-02-06 17:52:00,
2013-02-06 12:53:00,48.5,24.2,30.09,West,276,0.7,0.0,38,0.00,,,0.00,0,TxWx,2013-02-06 17:53:00,
2013-02-06 12:57:00,48.7,23.8,30.09,SW,224,0.3,0.0,37,0.00,,,0.00,0,TxWx,2013-02-06 17:57:00,
2013-02-06 12:58:00,48.9,24.8,30.09,WSW,245,1.5,1.5,38,0.00,,,0.00,0,TxWx,2013-02-06 17:58:00,
2013-02-06 13:02:00,49.1,24.2,30.09,West,269,1.5,1.5,37,0.00,,,0.00,0,TxWx,2013-02-06 18:02:00,
2013-02-06 13:04:00,49.3,24.8,30.09,WNW,282,0.3,0.0,37,0.00,,,0.00,0,TxWx,2013-02-06 18:04:00,
2013-02-06 13:07:00,50.0,25.8,30.09,WNW,303,0.0,0.0,38,0.00,,,0.00,0,TxWx,2013-02-06 18:07:00,
2013-02-06 13:09:00,50.3,24.6,30.09,East,100,0.0,0.0,36,0.00,,,0.00,0,TxWx,2013-02-06 18:09:00,
2013-02-06 13:12:00,50.4,23.5,30.09,WNW,302,0.3,0.0,34,0.00,,,0.00,0,TxWx,2013-02-06 18:12:00,
2013-02-06 13:14:00,50.6,23.6,30.09,WSW,257,0.7,0.0,34,0.00,,,0.00,0,TxWx,2013-02-06 18:14:00,
2013-02-06 13:17:00,50.8,24.3,30.09,West,278,1.5,1.5,35,0.00,,,0.00,0,TxWx,2013-02-06 18:17:00,
2013-02-06 13:18:00,50.8,24.3,30.09,West,277,1.5,1.5,35,0.00,,,0.00,0,TxWx,2013-02-06 18:18:00,
2013-02-06 13:19:00,51.0,25.1,30.09,West,272,0.7,0.0,36,0.00,,,0.00,0,TxWx,2013-02-06 18:19:00,
2013-02-06 13:23:00,51.0,24.4,30.09,WNW,301,0.7,0.0,35,0.00,,,0.00,0,TxWx,2013-02-06 18:23:00,
2013-02-06 13:24:00,50.9,23.4,30.09,NNW,333,0.7,0.0,33,0.00,,,0.00,0,TxWx,2013-02-06 18:24:00,
2013-02-06 13:28:00,51.1,24.0,30.09,West,265,1.1,1.1,34,0.00,,,0.00,0,TxWx,2013-02-06 18:28:00,
2013-02-06 13:30:00,51.5,22.9,30.09,WNW,290,0.0,0.0,32,0.00,,,0.00,0,TxWx,2013-02-06 18:30:00,
2013-02-06 13:33:00,51.4,23.1,30.08,NNW,336,1.5,1.5,32,0.00,,,0.00,0,TxWx,2013-02-06 18:33:00,
2013-02-06 13:35:00,51.6,23.0,30.08,South,180,0.7,0.0,32,0.00,,,0.00,0,TxWx,2013-02-06 18:35:00,
2013-02-06 13:38:00,51.7,23.0,30.08,North,3,0.7,0.0,32,0.00,,,0.00,0,TxWx,2013-02-06 18:38:00,
2013-02-06 13:41:00,51.7,22.6,30.08,WNW,293,1.5,1.5,31,0.00,,,0.00,0,TxWx,2013-02-06 18:41:00,
2013-02-06 13:43:00,51.6,23.2,30.08,West,271,1.5,1.5,32,0.00,,,0.00,0,TxWx,2013-02-06 18:43:00,
2013-02-06 13:44:00,51.4,23.0,30.08,WSW,243,1.5,1.5,32,0.00,,,0.00,0,TxWx,2013-02-06 18:44:00,
2013-02-06 13:46:00,51.9,23.1,30.08,WNW,299,1.1,1.1,32,0.00,,,0.00,0,TxWx,2013-02-06 18:46:00,
2013-02-06 13:48:00,52.0,23.7,30.08,WNW,289,1.5,1.5,32,0.00,,,0.00,0,TxWx,2013-02-06 18:48:00,
2013-02-06 13:49:00,52.1,23.7,30.08,WNW,303,1.5,1.5,32,0.00,,,0.00,0,TxWx,2013-02-06 18:49:00,
2013-02-06 13:51:00,52.1,23.8,30.08,SSW,213,1.5,1.5,33,0.00,,,0.00,0,TxWx,2013-02-06 18:51:00,
2013-02-06 13:53:00,52.0,23.6,30.08,West,271,1.5,1.5,32,0.00,,,0.00,0,TxWx,2013-02-06 18:53:00,
2013-02-06 13:54:00,52.2,23.7,30.08,NNW,334,1.5,1.5,32,0.00,,,0.00,0,TxWx,2013-02-06 18:54:00,
2013-02-06 13:56:00,52.4,22.6,30.08,NE,44,0.3,0.0,31,0.00,,,0.00,0,TxWx,2013-02-06 18:56:00,
2013-02-06 13:59:00,52.2,23.1,30.08,West,261,1.1,1.1,31,0.00,,,0.00,0,TxWx,2013-02-06 18:59:00,
2013-02-06 14:01:00,52.1,22.1,30.08,SSW,199,1.1,1.1,30,0.00,,,0.00,0,TxWx,2013-02-06 19:01:00,
2013-02-06 14:04:00,52.2,23.9,30.08,WSW,254,2.3,3.0,32,0.00,,,0.00,0,TxWx,2013-02-06 19:04:00,
2013-02-06 14:05:00,52.2,23.9,30.08,SSW,212,1.5,1.5,32,0.00,,,0.00,0,TxWx,2013-02-06 19:05:00,
2013-02-06 14:06:00,52.4,23.6,30.08,WSW,245,1.5,1.5,32,0.00,,,0.00,0,TxWx,2013-02-06 19:06:00,
2013-02-06 14:09:00,52.6,25.4,30.08,WNW,293,2.6,2.6,34,0.00,,,0.00,0,TxWx,2013-02-06 19:09:00,
2013-02-06 14:10:00,52.6,25.4,30.08,WNW,286,1.9,2.0,34,0.00,,,0.00,0,TxWx,2013-02-06 19:10:00,
2013-02-06 14:11:00,52.7,24.8,30.08,West,272,2.3,2.3,33,0.00,,,0.00,0,TxWx,2013-02-06 19:11:00,
2013-02-06 14:14:00,52.6,24.2,30.08,West,281,0.7,1.0,32,0.00,,,0.00,0,TxWx,2013-02-06 19:14:00,
2013-02-06 14:15:00,52.6,24.2,30.08,West,281,1.1,1.1,32,0.00,,,0.00,0,TxWx,2013-02-06 19:15:00,
2013-02-06 14:16:00,52.3,23.0,30.08,West,277,1.5,1.5,31,0.00,,,0.00,0,TxWx,2013-02-06 19:16:00,
2013-02-06 14:19:00,52.6,23.1,30.08,West,259,0.7,1.0,31,0.00,,,0.00,0,TxWx,2013-02-06 19:19:00,
2013-02-06 14:20:00,52.6,23.1,30.08,West,260,0.3,0.0,31,0.00,,,0.00,0,TxWx,2013-02-06 19:20:00,
2013-02-06 14:21:00,52.9,22.8,30.08,WNW,283,0.7,0.0,30,0.00,,,0.00,0,TxWx,2013-02-06 19:21:00,
2013-02-06 14:25:00,53.2,23.2,30.07,North,357,1.9,1.9,30,0.00,,,0.00,0,TxWx,2013-02-06 19:25:00,
2013-02-06 14:26:00,52.7,21.9,30.07,WNW,302,1.1,1.1,29,0.00,,,0.00,0,TxWx,2013-02-06 19:26:00,
2013-02-06 14:30:00,52.7,22.5,30.08,WNW,294,1.1,1.1,30,0.00,,,0.00,0,TxWx,2013-02-06 19:30:00,
2013-02-06 14:31:00,52.7,22.1,30.08,West,266,1.5,1.5,29,0.00,,,0.00,0,TxWx,2013-02-06 19:31:00,
2013-02-06 14:35:00,53.1,23.6,30.08,SW,230,1.5,1.5,31,0.00,,,0.00,0,TxWx,2013-02-06 19:35:00,
2013-02-06 14:36:00,52.9,23.6,30.08,West,274,1.5,1.5,31,0.00,,,0.00,0,TxWx,2013-02-06 19:36:00,
2013-02-06 14:40:00,53.0,23.1,30.08,NNW,337,0.3,0.0,30,0.00,,,0.00,0,TxWx,2013-02-06 19:40:00,
2013-02-06 14:41:00,53.0,23.1,30.08,NNW,339,1.1,1.1,30,0.00,,,0.00,0,TxWx,2013-02-06 19:41:00,
2013-02-06 14:45:00,53.2,23.5,30.08,WNW,298,2.6,2.6,31,0.00,,,0.00,0,TxWx,2013-02-06 19:45:00,
2013-02-06 14:46:00,53.2,23.8,30.08,NNW,335,1.9,1.9,31,0.00,,,0.00,0,TxWx,2013-02-06 19:46:00,
2013-02-06 14:47:00,53.2,23.8,30.08,West,274,1.1,1.1,31,0.00,,,0.00,0,TxWx,2013-02-06 19:47:00,
2013-02-06 14:50:00,53.2,22.7,30.08,SSW,207,1.5,1.5,30,0.00,,,0.00,0,TxWx,2013-02-06 19:50:00,
2013-02-06 14:51:00,53.2,22.7,30.08,SW,226,1.1,1.1,30,0.00,,,0.00,0,TxWx,2013-02-06 19:51:00,
2013-02-06 14:52:00,53.3,22.2,30.08,SW,215,2.3,2.3,29,0.00,,,0.00,0,TxWx,2013-02-06 19:52:00,
2013-02-06 14:55:00,53.2,21.7,30.08,WNW,300,0.3,0.0,28,0.00,,,0.00,0,TxWx,2013-02-06 19:55:00,
2013-02-06 14:56:00,53.2,21.7,30.08,WNW,292,0.7,0.0,28,0.00,,,0.00,0,TxWx,2013-02-06 19:56:00,
2013-02-06 14:57:00,53.7,22.3,30.08,WSW,247,1.5,1.5,29,0.00,,,0.00,0,TxWx,2013-02-06 19:57:00,
2013-02-06 15:01:00,53.9,23.1,30.08,South,173,1.5,1.5,29,0.00,,,0.00,0,TxWx,2013-02-06 20:01:00,
2013-02-06 15:02:00,53.8,23.1,30.08,SSW,194,1.5,1.5,30,0.00,,,0.00,0,TxWx,2013-02-06 20:02:00,
2013-02-06 15:06:00,53.5,23.2,30.07,West,260,1.5,1.5,30,0.00,,,0.00,0,TxWx,2013-02-06 20:06:00,
2013-02-06 15:07:00,53.4,21.4,30.07,WSW,245,0.3,0.0,28,0.00,,,0.00,0,TxWx,2013-02-06 20:07:00,
2013-02-06 15:11:00,53.6,21.9,30.07,West,267,1.1,1.1,28,0.00,,,0.00,0,TxWx,2013-02-06 20:11:00,
2013-02-06 15:12:00,53.3,22.9,30.07,West,279,1.5,1.5,30,0.00,,,0.00,0,TxWx,2013-02-06 20:12:00,
2013-02-06 15:16:00,53.3,22.9,30.07,North,3,0.3,0.0,30,0.00,,,0.00,0,TxWx,2013-02-06 20:16:00,
2013-02-06 15:17:00,53.3,22.9,30.07,NNW,328,0.3,0.0,30,0.00,,,0.00,0,TxWx,2013-02-06 20:17:00,
2013-02-06 15:21:00,53.1,24.8,30.07,WNW,293,1.1,1.1,33,0.00,,,0.00,0,TxWx,2013-02-06 20:21:00,
2013-02-06 15:22:00,53.1,24.8,30.07,North,5,1.5,1.5,33,0.00,,,0.00,0,TxWx,2013-02-06 20:22:00,
2013-02-06 15:26:00,53.0,22.2,30.08,WNW,292,0.7,1.0,29,0.00,,,0.00,0,TxWx,2013-02-06 20:26:00,
2013-02-06 15:27:00,53.0,22.2,30.08,West,262,1.9,1.9,29,0.00,,,0.00,0,TxWx,2013-02-06 20:27:00,
2013-02-06 15:28:00,52.9,21.9,30.08,WNW,294,1.9,1.9,29,0.00,,,0.00,0,TxWx,2013-02-06 20:28:00,
2013-02-06 15:31:00,52.8,23.4,30.08,WSW,252,0.7,1.0,31,0.00,,,0.00,0,TxWx,2013-02-06 20:31:00,
2013-02-06 15:32:00,53.0,23.1,30.08,WSW,238,0.7,1.0,30,0.00,,,0.00,0,TxWx,2013-02-06 20:32:00,
2013-02-06 15:33:00,53.0,23.1,30.08,WNW,288,0.7,0.0,30,0.00,,,0.00,0,TxWx,2013-02-06 20:33:00,
2013-02-06 15:36:00,53.0,23.1,30.08,WNW,301,0.0,0.0,30,0.00,,,0.00,0,TxWx,2013-02-06 20:36:00,
2013-02-06 15:37:00,53.0,23.3,30.08,SW,226,0.7,1.0,31,0.00,,,0.00,0,TxWx,2013-02-06 20:37:00,
2013-02-06 15:38:00,53.0,23.3,30.08,SW,231,0.7,0.0,31,0.00,,,0.00,0,TxWx,2013-02-06 20:38:00,
2013-02-06 15:41:00,53.2,22.8,30.08,SSE,165,0.7,0.0,30,0.00,,,0.00,0,TxWx,2013-02-06 20:41:00,
2013-02-06 15:43:00,53.2,21.9,30.08,North,355,0.3,0.0,29,0.00,,,0.00,0,TxWx,2013-02-06 20:43:00,
2013-02-06 15:46:00,53.2,22.0,30.08,NNW,347,0.3,0.0,29,0.00,,,0.00,0,TxWx,2013-02-06 20:46:00,
2013-02-06 15:48:00,53.0,22.0,30.08,ESE,106,1.5,1.5,29,0.00,,,0.00,0,TxWx,2013-02-06 20:48:00,
2013-02-06 15:51:00,53.0,22.8,30.08,ESE,108,1.1,1.1,30,0.00,,,0.00,0,TxWx,2013-02-06 20:51:00,
2013-02-06 15:53:00,52.7,22.9,30.08,West,265,1.1,1.1,31,0.00,,,0.00,0,TxWx,2013-02-06 20:53:00,
2013-02-06 15:54:00,52.6,23.3,30.08,West,265,1.5,1.5,31,0.00,,,0.00,0,TxWx,2013-02-06 20:54:00,
2013-02-06 15:56:00,52.9,23.3,30.08,SSE,153,0.7,0.0,31,0.00,,,0.00,0,TxWx,2013-02-06 20:56:00,
2013-02-06 15:58:00,53.0,23.2,30.08,SW,214,0.7,0.0,30,0.00,,,0.00,0,TxWx,2013-02-06 20:58:00,
2013-02-06 15:59:00,52.9,23.1,30.08,SW,221,1.9,2.0,30,0.00,,,0.00,0,TxWx,2013-02-06 20:59:00,
2013-02-06 16:01:00,52.6,22.8,30.08,SW,230,1.1,1.1,31,0.00,,,0.00,0,TxWx,2013-02-06 21:01:00,
2013-02-06 16:04:00,52.5,23.0,30.08,WSW,249,0.3,0.0,31,0.00,,,0.00,0,TxWx,2013-02-06 21:04:00,
2013-02-06 16:06:00,52.7,23.4,30.08,West,278,0.3,0.0,31,0.00,,,0.00,0,TxWx,2013-02-06 21:06:00,
2013-02-06 16:09:00,52.5,23.8,30.08,WNW,295,1.1,1.1,32,0.00,,,0.00,0,TxWx,2013-02-06 21:09:00,
2013-02-06 16:10:00,52.5,23.8,30.08,WNW,295,0.3,0.0,32,0.00,,,0.00,0,TxWx,2013-02-06 21:10:00,
2013-02-06 16:12:00,52.3,24.2,30.08,WSW,240,0.3,0.0,33,0.00,,,0.00,0,TxWx,2013-02-06 21:12:00,
2013-02-06 16:14:00,52.4,24.0,30.08,WSW,240,0.7,0.0,32,0.00,,,0.00,0,TxWx,2013-02-06 21:14:00,
2013-02-06 16:15:00,52.4,24.0,30.08,WSW,246,0.3,0.0,32,0.00,,,0.00,0,TxWx,2013-02-06 21:15:00,
2013-02-06 16:17:00,52.6,23.3,30.08,WSW,256,0.3,0.0,31,0.00,,,0.00,0,TxWx,2013-02-06 21:17:00,
2013-02-06 16:19:00,52.5,23.3,30.08,West,269,0.3,0.0,31,0.00,,,0.00,0,TxWx,2013-02-06 21:19:00,
2013-02-06 16:20:00,52.5,23.3,30.08,West,270,0.3,0.0,31,0.00,,,0.00,0,TxWx,2013-02-06 21:20:00,
2013-02-06 16:22:00,52.6,23.2,30.08,SW,227,0.7,1.0,31,0.00,,,0.00,0,TxWx,2013-02-06 21:22:00,
2013-02-06 16:24:00,51.8,24.2,30.08,WSW,251,2.3,2.3,33,0.00,,,0.00,0,TxWx,2013-02-06 21:24:00,
2013-02-06 16:25:00,51.8,24.2,30.08,SW,235,1.1,1.1,33,0.00,,,0.00,0,TxWx,2013-02-06 21:25:00,
2013-02-06 16:26:00,51.7,22.9,30.08,WSW,255,1.1,1.1,32,0.00,,,0.00,0,TxWx,2013-02-06 21:26:00,
2013-02-06 16:27:00,51.5,22.7,30.08,South,183,0.7,0.0,32,0.00,,,0.00,0,TxWx,2013-02-06 21:27:00,
2013-02-06 16:29:00,51.8,22.8,30.08,WSW,249,1.1,1.1,31,0.00,,,0.00,0,TxWx,2013-02-06 21:29:00,
2013-02-06 16:30:00,51.8,22.8,30.08,West,262,0.7,1.0,31,0.00,,,0.00,0,TxWx,2013-02-06 21:30:00,
2013-02-06 16:31:00,51.7,22.9,30.08,SSW,196,1.1,1.1,32,0.00,,,0.00,0,TxWx,2013-02-06 21:31:00,
2013-02-06 16:32:00,51.2,23.4,30.08,WSW,251,0.3,0.0,33,0.00,,,0.00,0,TxWx,2013-02-06 21:32:00,
2013-02-06 16:34:00,51.5,23.0,30.08,WNW,293,0.3,0.0,32,0.00,,,0.00,0,TxWx,2013-02-06 21:34:00,
2013-02-06 16:35:00,51.5,23.0,30.08,WNW,294,0.3,0.0,32,0.00,,,0.00,0,TxWx,2013-02-06 21:35:00,
2013-02-06 16:36:00,51.3,22.9,30.08,South,182,1.5,1.5,32,0.00,,,0.00,0,TxWx,2013-02-06 21:36:00,
2013-02-06 16:38:00,51.3,22.7,30.08,WSW,239,0.3,0.0,32,0.00,,,0.00,0,TxWx,2013-02-06 21:38:00,
2013-02-06 16:39:00,51.1,23.0,30.08,SW,234,0.7,1.0,33,0.00,,,0.00,0,TxWx,2013-02-06 21:39:00,
2013-02-06 16:40:00,50.8,23.4,30.08,SW,223,2.3,2.3,33,0.00,,,0.00,0,TxWx,2013-02-06 21:40:00,
2013-02-06 16:41:00,50.6,22.7,30.08,SSW,200,2.3,2.3,33,0.00,,,0.00,0,TxWx,2013-02-06 21:41:00,
2013-02-06 16:43:00,50.3,22.9,30.08,WSW,249,1.1,1.1,33,0.00,,,0.00,0,TxWx,2013-02-06 21:43:00,
2013-02-06 16:45:00,50.1,23.1,30.08,SW,215,1.1,1.1,34,0.00,,,0.00,0,TxWx,2013-02-06 21:45:00,
2013-02-06 16:46:00,50.1,23.2,30.08,East,86,0.7,0.0,34,0.00,,,0.00,0,TxWx,2013-02-06 21:46:00,
2013-02-06 16:48:00,50.2,23.1,30.08,NE,35,0.3,0.0,34,0.00,,,0.00,0,TxWx,2013-02-06 21:48:00,
2013-02-06 16:50:00,50.1,22.1,30.08,SE,141,1.5,1.5,32,0.00,,,0.00,0,TxWx,2013-02-06 21:50:00,
2013-02-06 16:51:00,50.1,22.1,30.08,SSW,194,1.1,1.1,32,0.00,,,0.00,0,TxWx,2013-02-06 21:51:00,
2013-02-06 16:53:00,50.2,22.5,30.08,WSW,249,1.5,1.5,33,0.00,,,0.00,0,TxWx,2013-02-06 21:53:00,
2013-02-06 16:55:00,49.9,22.9,30.08,SSW,200,1.9,2.0,34,0.00,,,0.00,0,TxWx,2013-02-06 21:55:00,
2013-02-06 16:56:00,49.9,22.9,30.08,SW,216,0.7,0.0,34,0.00,,,0.00,0,TxWx,2013-02-06 21:56:00,
2013-02-06 16:58:00,50.0,22.2,30.09,WSW,242,1.1,1.1,33,0.00,,,0.00,0,TxWx,2013-02-06 21:58:00,
2013-02-06 17:00:00,49.8,22.7,30.09,WSW,255,1.1,1.1,34,0.00,,,0.00,0,TxWx,2013-02-06 22:00:00,
2013-02-06 17:01:00,49.8,22.3,30.09,SSE,164,1.1,1.1,33,0.00,,,0.00,0,TxWx,2013-02-06 22:01:00,
2013-02-06 17:03:00,49.6,22.9,30.09,South,170,1.5,1.5,34,0.00,,,0.00,0,TxWx,2013-02-06 22:03:00,
2013-02-06 17:05:00,49.4,22.5,30.09,South,173,1.1,1.1,34,0.00,,,0.00,0,TxWx,2013-02-06 22:05:00,
2013-02-06 17:06:00,49.5,22.1,30.09,South,181,1.1,1.1,33,0.00,,,0.00,0,TxWx,2013-02-06 22:06:00,
2013-02-06 17:09:00,49.4,22.1,30.09,SSW,207,1.5,1.5,33,0.00,,,0.00,0,TxWx,2013-02-06 22:09:00,
2013-02-06 17:10:00,49.0,22.9,30.09,South,169,1.1,1.1,35,0.00,,,0.00,0,TxWx,2013-02-06 22:10:00,
2013-02-06 17:11:00,49.0,22.5,30.09,SSE,166,1.1,1.1,34,0.00,,,0.00,0,TxWx,2013-02-06 22:11:00,
2013-02-06 17:14:00,48.9,22.9,30.09,SW,214,1.1,1.1,35,0.00,,,0.00,0,TxWx,2013-02-06 22:14:00,
2013-02-06 17:15:00,48.5,23.4,30.09,SSW,202,1.1,1.1,37,0.00,,,0.00,0,TxWx,2013-02-06 22:15:00,
2013-02-06 17:16:00,48.4,23.1,30.09,SSW,210,0.7,1.0,36,0.00,,,0.00,0,TxWx,2013-02-06 22:16:00,
2013-02-06 17:19:00,48.5,22.2,30.09,SSW,195,0.7,1.0,35,0.00,,,0.00,0,TxWx,2013-02-06 22:19:00,
2013-02-06 17:20:00,48.6,22.3,30.09,SSW,198,0.7,1.0,35,0.00,,,0.00,0,TxWx,2013-02-06 22:20:00,
2013-02-06 17:21:00,48.6,22.3,30.09,SSW,211,2.3,2.3,35,0.00,,,0.00,0,TxWx,2013-02-06 22:21:00,
2013-02-06 17:22:00,48.6,22.3,30.09,SSW,196,1.9,2.0,35,0.00,,,0.00,0,TxWx,2013-02-06 22:22:00,
2013-02-06 17:24:00,48.5,22.5,30.09,SSW,201,0.7,0.0,35,0.00,,,0.00,0,TxWx,2013-02-06 22:24:00,
2013-02-06 17:26:00,48.1,23.8,30.09,SSW,213,1.5,1.5,38,0.00,,,0.00,0,TxWx,2013-02-06 22:26:00,
2013-02-06 17:27:00,47.8,23.7,30.09,SSW,196,1.5,1.5,38,0.00,,,0.00,0,TxWx,2013-02-06 22:27:00,
2013-02-06 17:29:00,48.2,22.4,30.09,SSE,165,0.7,0.0,35,0.00,,,0.00,0,TxWx,2013-02-06 22:29:00,
2013-02-06 17:31:00,48.3,22.4,30.09,South,176,0.3,0.0,35,0.00,,,0.00,0,TxWx,2013-02-06 22:31:00,
2013-02-06 17:32:00,48.4,22.4,30.09,SW,230,1.1,1.1,35,0.00,,,0.00,0,TxWx,2013-02-06 22:32:00,
2013-02-06 17:34:00,47.6,22.9,30.09,South,191,1.9,1.9,37,0.00,,,0.00,0,TxWx,2013-02-06 22:34:00,
2013-02-06 17:36:00,47.7,22.9,30.09,South,173,1.5,1.5,37,0.00,,,0.00,0,TxWx,2013-02-06 22:36:00,
2013-02-06 17:37:00,47.5,23.3,30.09,SSE,163,1.1,1.1,38,0.00,,,0.00,0,TxWx,2013-02-06 22:37:00,
2013-02-06 17:39:00,47.1,23.6,30.09,SSW,199,1.1,1.1,39,0.00,,,0.00,0,TxWx,2013-02-06 22:39:00,
2013-02-06 17:41:00,47.1,23.1,30.09,South,179,1.5,1.5,38,0.00,,,0.00,0,TxWx,2013-02-06 22:41:00,
2013-02-06 17:42:00,47.2,22.9,30.09,SSE,165,1.1,1.1,38,0.00,,,0.00,0,TxWx,2013-02-06 22:42:00,
2013-02-06 17:44:00,47.2,23.7,30.09,SSE,164,1.5,1.5,39,0.00,,,0.00,0,TxWx,2013-02-06 22:44:00,
2013-02-06 17:46:00,47.2,23.6,30.09,South,185,1.1,1.1,39,0.00,,,0.00,0,TxWx,2013-02-06 22:46:00,
2013-02-06 17:47:00,47.2,23.3,30.09,SSW,193,1.1,1.1,38,0.00,,,0.00,0,TxWx,2013-02-06 22:47:00,
2013-02-06 17:50:00,47.0,23.1,30.09,South,173,1.5,1.5,38,0.00,,,0.00,0,TxWx,2013-02-06 22:50:00,
2013-02-06 17:51:00,46.9,23.0,30.09,South,171,1.5,1.5,38,0.00,,,0.00,0,TxWx,2013-02-06 22:51:00,
2013-02-06 17:52:00,46.9,23.0,30.09,South,177,1.1,1.1,38,0.00,,,0.00,0,TxWx,2013-02-06 22:52:00,
2013-02-06 17:55:00,46.8,22.7,30.09,South,171,1.1,1.1,38,0.00,,,0.00,0,TxWx,2013-02-06 22:55:00,
2013-02-06 17:56:00,46.7,22.9,30.09,South,172,1.1,1.1,38,0.00,,,0.00,0,TxWx,2013-02-06 22:56:00,
2013-02-06 17:57:00,46.7,23.2,30.09,South,172,0.7,0.0,39,0.00,,,0.00,0,TxWx,2013-02-06 22:57:00,
2013-02-06 18:01:00,46.2,24.2,30.09,SSW,210,0.7,0.0,41,0.00,,,0.00,0,TxWx,2013-02-06 23:01:00,
2013-02-06 18:02:00,45.9,23.7,30.09,South,191,1.1,1.1,41,0.00,,,0.00,0,TxWx,2013-02-06 23:02:00,
2013-02-06 18:06:00,45.6,23.3,30.10,SSW,204,1.1,1.1,41,0.00,,,0.00,0,TxWx,2013-02-06 23:06:00,
2013-02-06 18:07:00,45.3,23.9,30.10,SSE,157,1.1,1.1,42,0.00,,,0.00,0,TxWx,2013-02-06 23:07:00,
2013-02-06 18:08:00,45.3,23.9,30.10,SSE,157,1.1,1.1,42,0.00,,,0.00,0,TxWx,2013-02-06 23:08:00,
2013-02-06 18:11:00,45.1,23.9,30.10,SSE,157,1.1,1.1,42,0.00,,,0.00,0,TxWx,2013-02-06 23:11:00,
2013-02-06 18:12:00,45.1,23.9,30.10,SSE,158,1.1,1.1,42,0.00,,,0.00,0,TxWx,2013-02-06 23:12:00,
2013-02-06 18:13:00,45.1,23.9,30.10,SSE,158,1.1,1.1,42,0.00,,,0.00,0,TxWx,2013-02-06 23:13:00,
2013-02-06 18:16:00,44.9,24.0,30.10,South,170,0.7,1.0,43,0.00,,,0.00,0,TxWx,2013-02-06 23:16:00,
2013-02-06 18:17:00,44.9,23.9,30.10,South,178,0.7,1.0,43,0.00,,,0.00,0,TxWx,2013-02-06 23:17:00,
2013-02-06 18:18:00,44.8,23.8,30.10,South,179,1.1,1.1,43,0.00,,,0.00,0,TxWx,2013-02-06 23:18:00,
2013-02-06 18:21:00,44.7,23.8,30.11,South,184,1.1,1.1,43,0.00,,,0.00,0,TxWx,2013-02-06 23:21:00,
2013-02-06 18:22:00,44.7,23.8,30.11,South,185,1.1,1.1,43,0.00,,,0.00,0,TxWx,2013-02-06 23:22:00,
2013-02-06 18:23:00,44.7,23.6,30.11,SSE,166,1.1,1.1,43,0.00,,,0.00,0,TxWx,2013-02-06 23:23:00,
2013-02-06 18:26:00,44.5,23.8,30.11,SSE,168,1.1,1.1,43,0.00,,,0.00,0,TxWx,2013-02-06 23:26:00,
2013-02-06 18:27:00,44.5,23.8,30.11,South,190,0.7,0.0,43,0.00,,,0.00,0,TxWx,2013-02-06 23:27:00,
2013-02-06 18:28:00,44.3,24.2,30.11,SSW,195,1.1,1.1,44,0.00,,,0.00,0,TxWx,2013-02-06 23:28:00,
2013-02-06 18:32:00,44.3,23.7,30.11,South,177,1.1,1.1,43,0.00,,,0.00,0,TxWx,2013-02-06 23:32:00,
2013-02-06 18:33:00,44.3,23.8,30.11,South,183,1.1,1.1,44,0.00,,,0.00,0,TxWx,2013-02-06 23:33:00,
2013-02-06 18:37:00,44.4,24.0,30.11,SSW,194,0.7,1.0,44,0.00,,,0.00,0,TxWx,2013-02-06 23:37:00,
2013-02-06 18:39:00,44.3,24.1,30.11,South,188,0.7,1.0,44,0.00,,,0.00,0,TxWx,2013-02-06 23:39:00,
2013-02-06 18:42:00,43.8,24.5,30.11,South,170,1.1,1.1,46,0.00,,,0.00,0,TxWx,2013-02-06 23:42:00,
2013-02-06 18:44:00,43.8,24.7,30.11,South,171,0.3,0.0,46,0.00,,,0.00,0,TxWx,2013-02-06 23:44:00,
2013-02-06 18:47:00,43.7,25.5,30.11,SE,130,0.7,1.0,48,0.00,,,0.00,0,TxWx,2013-02-06 23:47:00,
2013-02-06 18:49:00,43.7,24.7,30.11,SSE,155,0.7,1.0,46,0.00,,,0.00,0,TxWx,2013-02-06 23:49:00,
2013-02-06 18:52:00,43.7,24.5,30.11,SSE,161,1.1,1.1,46,0.00,,,0.00,0,TxWx,2013-02-06 23:52:00,
2013-02-06 18:53:00,43.7,24.4,30.11,SSE,163,0.7,1.0,46,0.00,,,0.00,0,TxWx,2013-02-06 23:53:00,
2013-02-06 18:54:00,43.8,24.0,30.11,SSW,198,0.7,0.0,45,0.00,,,0.00,0,TxWx,2013-02-06 23:54:00,
2013-02-06 18:57:00,43.5,24.8,30.11,SSE,155,0.7,0.0,47,0.00,,,0.00,0,TxWx,2013-02-06 23:57:00,
2013-02-06 18:58:00,43.5,24.1,30.11,SSE,156,1.1,1.1,46,0.00,,,0.00,0,TxWx,2013-02-06 23:58:00,
2013-02-06 18:59:00,43.5,24.4,30.11,SSE,150,0.7,1.0,46,0.00,,,0.00,0,TxWx,2013-02-06 23:59:00,
2013-02-06 19:02:00,44.0,23.8,30.11,WNW,293,1.9,1.9,44,0.00,,,0.00,0,TxWx,2013-02-07 00:02:00,
2013-02-06 19:03:00,44.0,23.8,30.11,SSE,159,1.1,1.1,44,0.00,,,0.00,0,TxWx,2013-02-07 00:03:00,
2013-02-06 19:04:00,43.8,24.0,30.11,SSE,158,0.7,1.0,45,0.00,,,0.00,0,TxWx,2013-02-07 00:04:00,
2013-02-06 19:08:00,43.4,23.7,30.11,SSE,158,1.1,1.1,45,0.00,,,0.00,0,TxWx,2013-02-07 00:08:00,
2013-02-06 19:09:00,43.3,23.8,30.11,SSE,158,0.7,1.0,45,0.00,,,0.00,0,TxWx,2013-02-07 00:09:00,
2013-02-06 19:10:00,43.2,23.9,30.11,SSE,159,0.7,1.0,46,0.00,,,0.00,0,TxWx,2013-02-07 00:10:00,
2013-02-06 19:13:00,42.7,24.0,30.11,SSE,161,0.7,1.0,47,0.00,,,0.00,0,TxWx,2013-02-07 00:13:00,
2013-02-06 19:14:00,42.5,24.2,30.11,SSE,164,0.7,0.0,47,0.00,,,0.00,0,TxWx,2013-02-07 00:14:00,
2013-02-06 19:15:00,42.2,24.1,30.11,South,175,0.7,0.0,48,0.00,,,0.00,0,TxWx,2013-02-07 00:15:00,
2013-02-06 19:18:00,42.0,24.0,30.11,South,189,1.5,1.5,48,0.00,,,0.00,0,TxWx,2013-02-07 00:18:00,
2013-02-06 19:19:00,42.0,23.8,30.11,South,172,0.7,1.0,48,0.00,,,0.00,0,TxWx,2013-02-07 00:19:00,
2013-02-06 19:20:00,42.0,23.9,30.11,South,170,1.1,1.1,48,0.00,,,0.00,0,TxWx,2013-02-07 00:20:00,
2013-02-06 19:23:00,42.1,23.5,30.11,SSE,160,1.5,1.5,47,0.00,,,0.00,0,TxWx,2013-02-07 00:23:00,
2013-02-06 19:24:00,42.2,23.5,30.11,SSE,160,1.1,1.1,47,0.00,,,0.00,0,TxWx,2013-02-07 00:24:00,
2013-02-06 19:25:00,42.3,23.4,30.11,SSE,160,1.1,1.1,46,0.00,,,0.00,0,TxWx,2013-02-07 00:25:00,
2013-02-06 19:28:00,42.4,23.1,30.11,SSE,165,1.1,1.1,45,0.00,,,0.00,0,TxWx,2013-02-07 00:28:00,
2013-02-06 19:30:00,41.9,24.0,30.11,South,179,1.1,1.1,48,0.00,,,0.00,0,TxWx,2013-02-07 00:30:00,
2013-02-06 19:33:00,42.0,24.0,30.11,South,173,0.7,0.0,48,0.00,,,0.00,0,TxWx,2013-02-07 00:33:00,
2013-02-06 19:35:00,42.0,24.3,30.11,South,173,0.0,0.0,49,0.00,,,0.00,0,TxWx,2013-02-07 00:35:00,
2013-02-06 19:38:00,41.8,24.5,30.11,South,173,0.3,0.0,49,0.00,,,0.00,0,TxWx,2013-02-07 00:38:00,
2013-02-06 19:39:00,41.8,24.5,30.11,South,173,0.7,0.0,49,0.00,,,0.00,0,TxWx,2013-02-07 00:39:00,
2013-02-06 19:40:00,41.8,24.1,30.11,South,173,0.0,0.0,49,0.00,,,0.00,0,TxWx,2013-02-07 00:40:00,
2013-02-06 19:41:00,41.8,24.1,30.11,South,182,0.0,0.0,49,0.00,,,0.00,0,TxWx,2013-02-07 00:41:00,
2013-02-06 19:43:00,41.8,24.1,30.11,SSW,208,0.3,0.0,49,0.00,,,0.00,0,TxWx,2013-02-07 00:43:00,
2013-02-06 19:44:00,41.8,24.1,30.11,SSW,198,0.3,0.0,49,0.00,,,0.00,0,TxWx,2013-02-07 00:44:00,
2013-02-06 19:45:00,41.8,24.0,30.11,South,169,1.1,1.1,48,0.00,,,0.00,0,TxWx,2013-02-07 00:45:00,
2013-02-06 19:46:00,41.7,23.9,30.11,South,169,0.7,1.0,48,0.00,,,0.00,0,TxWx,2013-02-07 00:46:00,
2013-02-06 19:48:00,41.6,23.9,30.11,South,169,0.7,0.0,49,0.00,,,0.00,0,TxWx,2013-02-07 00:48:00,
2013-02-06 19:49:00,41.6,23.9,30.11,South,169,0.7,1.0,49,0.00,,,0.00,0,TxWx,2013-02-07 00:49:00,
2013-02-06 19:51:00,41.6,23.8,30.11,South,169,0.7,0.0,48,0.00,,,0.00,0,TxWx,2013-02-07 00:51:00,
2013-02-06 19:53:00,41.6,23.9,30.11,SSE,160,1.1,1.1,48,0.00,,,0.00,0,TxWx,2013-02-07 00:53:00,
2013-02-06 19:54:00,41.5,23.9,30.11,SSE,160,0.7,0.0,49,0.00,,,0.00,0,TxWx,2013-02-07 00:54:00,
2013-02-06 19:56:00,41.6,23.8,30.11,SSE,160,0.7,1.0,48,0.00,,,0.00,0,TxWx,2013-02-07 00:56:00,
2013-02-06 19:59:00,41.6,23.6,30.11,SSE,160,0.7,1.0,48,0.00,,,0.00,0,TxWx,2013-02-07 00:59:00,
2013-02-06 20:01:00,41.5,23.7,30.11,SSE,160,1.1,1.1,48,0.00,,,0.00,0,TxWx,2013-02-07 01:01:00,
2013-02-06 20:04:00,41.4,23.7,30.11,SSE,160,0.7,1.0,48,0.00,,,0.00,0,TxWx,2013-02-07 01:04:00,
2013-02-06 20:06:00,41.4,23.6,30.11,SSE,160,0.7,1.0,48,0.00,,,0.00,0,TxWx,2013-02-07 01:06:00,
2013-02-06 20:09:00,41.2,23.8,30.11,SSE,160,0.7,1.0,49,0.00,,,0.00,0,TxWx,2013-02-07 01:09:00,
2013-02-06 20:10:00,41.1,23.7,30.11,SSE,160,0.7,1.0,49,0.00,,,0.00,0,TxWx,2013-02-07 01:10:00,
2013-02-06 20:11:00,41.1,23.8,30.11,SSE,160,0.7,1.0,49,0.00,,,0.00,0,TxWx,2013-02-07 01:11:00,
2013-02-06 20:14:00,41.1,23.6,30.11,SSE,160,0.7,1.0,49,0.00,,,0.00,0,TxWx,2013-02-07 01:14:00,
2013-02-06 20:15:00,41.0,23.8,30.11,SSE,160,0.7,0.0,50,0.00,,,0.00,0,TxWx,2013-02-07 01:15:00,
2013-02-06 20:16:00,41.0,23.9,30.11,SSE,160,0.7,0.0,50,0.00,,,0.00,0,TxWx,2013-02-07 01:16:00,
2013-02-06 20:17:00,41.0,23.9,30.11,SSE,160,0.7,0.0,50,0.00,,,0.00,0,TxWx,2013-02-07 01:17:00,
2013-02-06 20:19:00,40.6,24.3,30.11,SSE,160,0.7,0.0,51,0.00,,,0.00,0,TxWx,2013-02-07 01:19:00,
2013-02-06 20:20:00,40.5,24.4,30.11,SSE,160,0.7,0.0,52,0.00,,,0.00,0,TxWx,2013-02-07 01:20:00,
2013-02-06 20:21:00,40.5,24.4,30.11,SSE,160,0.3,0.0,52,0.00,,,0.00,0,TxWx,2013-02-07 01:21:00,
2013-02-06 20:23:00,40.5,24.1,30.11,SSE,160,0.0,0.0,51,0.00,,,0.00,0,TxWx,2013-02-07 01:23:00,
2013-02-06 20:24:00,40.5,24.0,30.11,SSE,160,0.0,0.0,51,0.00,,,0.00,0,TxWx,2013-02-07 01:24:00,
2013-02-06 20:25:00,40.5,23.9,30.11,SSE,161,0.0,0.0,51,0.00,,,0.00,0,TxWx,2013-02-07 01:25:00,
2013-02-06 20:27:00,40.6,23.9,30.11,SSE,161,0.0,0.0,51,0.00,,,0.00,0,TxWx,2013-02-07 01:27:00,
2013-02-06 20:28:00,40.6,23.7,30.11,SSE,161,0.0,0.0,50,0.00,,,0.00,0,TxWx,2013-02-07 01:28:00,
2013-02-06 20:29:00,40.6,23.8,30.11,SSE,161,0.7,0.0,50,0.00,,,0.00,0,TxWx,2013-02-07 01:29:00,
2013-02-06 20:30:00,40.6,23.9,30.11,SSE,161,0.7,0.0,51,0.00,,,0.00,0,TxWx,2013-02-07 01:30:00,
2013-02-06 20:32:00,40.5,23.8,30.11,SSE,161,0.7,0.0,50,0.00,,,0.00,0,TxWx,2013-02-07 01:32:00,
2013-02-06 20:33:00,40.4,23.8,30.11,SSE,161,1.1,1.1,51,0.00,,,0.00,0,TxWx,2013-02-07 01:33:00,
2013-02-06 20:34:00,40.4,23.8,30.11,SSE,161,0.7,0.0,51,0.00,,,0.00,0,TxWx,2013-02-07 01:34:00,
2013-02-06 20:35:00,40.4,23.7,30.11,SSE,161,0.7,0.0,51,0.00,,,0.00,0,TxWx,2013-02-07 01:35:00,
2013-02-06 20:37:00,40.3,23.7,30.11,SSE,161,0.7,0.0,51,0.00,,,0.00,0,TxWx,2013-02-07 01:37:00,
2013-02-06 20:38:00,40.2,23.9,30.11,SSE,161,0.7,0.0,51,0.00,,,0.00,0,TxWx,2013-02-07 01:38:00,
2013-02-06 20:39:00,40.0,24.3,30.11,SSE,161,0.3,0.0,53,0.00,,,0.00,0,TxWx,2013-02-07 01:39:00,
2013-02-06 20:40:00,39.7,24.8,30.11,South,183,0.3,0.0,54,0.00,,,0.00,0,TxWx,2013-02-07 01:40:00,
2013-02-06 20:42:00,39.3,24.7,30.11,SW,214,1.1,1.1,55,0.00,,,0.00,0,TxWx,2013-02-07 01:42:00,
2013-02-06 20:43:00,39.1,24.7,30.11,SSW,193,1.1,1.1,55,0.00,,,0.00,0,TxWx,2013-02-07 01:43:00,
2013-02-06 20:45:00,39.1,24.3,30.12,South,175,0.7,0.0,54,0.00,,,0.00,0,TxWx,2013-02-07 01:45:00,
2013-02-06 20:47:00,39.4,23.9,30.12,South,173,1.1,1.1,53,0.00,,,0.00,0,TxWx,2013-02-07 01:47:00,
2013-02-06 20:49:00,39.5,23.8,30.12,SSE,166,0.3,0.0,53,0.00,,,0.00,0,TxWx,2013-02-07 01:49:00,
2013-02-06 20:50:00,39.8,23.7,30.11,SSE,166,0.3,0.0,52,0.00,,,0.00,0,TxWx,2013-02-07 01:50:00,
2013-02-06 20:52:00,39.8,23.9,30.11,SSE,164,0.3,0.0,52,0.00,,,0.00,0,TxWx,2013-02-07 01:52:00,
2013-02-06 20:54:00,39.9,23.9,30.11,SSE,164,0.7,0.0,52,0.00,,,0.00,0,TxWx,2013-02-07 01:54:00,
2013-02-06 20:55:00,39.9,23.9,30.11,SSE,163,0.7,0.0,52,0.00,,,0.00,0,TxWx,2013-02-07 01:55:00,
2013-02-06 20:57:00,40.1,23.6,30.11,SSE,152,0.7,0.0,51,0.00,,,0.00,0,TxWx,2013-02-07 01:57:00,
2013-02-06 20:59:00,40.2,23.5,30.11,SSE,152,0.3,0.0,51,0.00,,,0.00,0,TxWx,2013-02-07 01:59:00,
2013-02-06 21:00:00,40.2,23.5,30.11,SSE,152,0.7,0.0,51,0.00,,,0.00,0,TxWx,2013-02-07 02:00:00,
2013-02-06 21:01:00,40.2,23.5,30.11,SSE,152,0.7,0.0,51,0.00,,,0.00,0,TxWx,2013-02-07 02:01:00,
2013-02-06 21:02:00,40.4,23.5,30.11,SSE,152,0.3,0.0,50,0.00,,,0.00,0,TxWx,2013-02-07 02:02:00,
2013-02-06 21:04:00,39.7,23.4,30.11,South,187,0.7,0.0,51,0.00,,,0.00,0,TxWx,2013-02-07 02:04:00,
2013-02-06 21:05:00,39.6,24.2,30.12,South,185,0.7,0.0,53,0.00,,,0.00,0,TxWx,2013-02-07 02:05:00,
2013-02-06 21:06:00,39.6,24.2,30.12,South,185,0.3,0.0,53,0.00,,,0.00,0,TxWx,2013-02-07 02:06:00,
2013-02-06 21:07:00,39.5,23.9,30.12,South,182,0.3,0.0,53,0.00,,,0.00,0,TxWx,2013-02-07 02:07:00,
2013-02-06 21:09:00,39.4,24.0,30.12,South,182,0.3,0.0,53,0.00,,,0.00,0,TxWx,2013-02-07 02:09:00,
2013-02-06 21:10:00,39.4,24.2,30.12,South,183,0.3,0.0,54,0.00,,,0.00,0,TxWx,2013-02-07 02:10:00,
2013-02-06 21:11:00,39.3,24.1,30.12,South,182,0.3,0.0,54,0.00,,,0.00,0,TxWx,2013-02-07 02:11:00,
2013-02-06 21:12:00,39.3,24.0,30.12,South,182,0.0,0.0,53,0.00,,,0.00,0,TxWx,2013-02-07 02:12:00,
2013-02-06 21:14:00,39.3,23.9,30.12,South,182,0.0,0.0,53,0.00,,,0.00,0,TxWx,2013-02-07 02:14:00,
2013-02-06 21:16:00,39.4,23.7,30.13,South,182,0.0,0.0,53,0.00,,,0.00,0,TxWx,2013-02-07 02:16:00,
2013-02-06 21:17:00,39.4,23.6,30.13,SW,219,0.7,0.0,52,0.00,,,0.00,0,TxWx,2013-02-07 02:17:00,
2013-02-06 21:20:00,39.4,23.4,30.14,SSW,205,0.7,0.0,52,0.00,,,0.00,0,TxWx,2013-02-07 02:20:00,
2013-02-06 21:21:00,39.4,23.6,30.14,South,179,0.7,1.0,52,0.00,,,0.00,0,TxWx,2013-02-07 02:21:00,
2013-02-06 21:23:00,39.6,23.5,30.14,South,173,0.3,0.0,52,0.00,,,0.00,0,TxWx,2013-02-07 02:23:00,
2013-02-06 21:25:00,39.7,23.3,30.14,SE,130,0.7,0.0,51,0.00,,,0.00,0,TxWx,2013-02-07 02:25:00,
2013-02-06 21:26:00,39.7,23.3,30.14,SE,127,0.7,0.0,51,0.00,,,0.00,0,TxWx,2013-02-07 02:26:00,
2013-02-06 21:28:00,39.9,23.3,30.14,SE,146,0.7,0.0,51,0.00,,,0.00,0,TxWx,2013-02-07 02:28:00,
2013-02-06 21:30:00,39.8,23.8,30.14,SSE,151,0.7,0.0,52,0.00,,,0.00,0,TxWx,2013-02-07 02:30:00,
2013-02-06 21:31:00,39.8,23.9,30.14,SSE,151,0.7,1.0,52,0.00,,,0.00,0,TxWx,2013-02-07 02:31:00,
2013-02-06 21:33:00,39.7,24.1,30.14,SSE,151,0.7,0.0,53,0.00,,,0.00,0,TxWx,2013-02-07 02:33:00,
2013-02-06 21:35:00,39.7,24.0,30.14,SSE,151,0.7,1.0,53,0.00,,,0.00,0,TxWx,2013-02-07 02:35:00,
2013-02-06 21:36:00,39.7,23.9,30.13,SSE,151,1.1,1.1,52,0.00,,,0.00,0,TxWx,2013-02-07 02:36:00,
2013-02-06 21:37:00,39.7,24.0,30.13,SSE,151,0.7,1.0,53,0.00,,,0.00,0,TxWx,2013-02-07 02:37:00,
2013-02-06 21:38:00,39.8,24.0,30.13,SSE,151,0.7,0.0,53,0.00,,,0.00,0,TxWx,2013-02-07 02:38:00,
2013-02-06 21:40:00,39.8,23.9,30.14,SSE,151,0.3,0.0,52,0.00,,,0.00,0,TxWx,2013-02-07 02:40:00,
2013-02-06 21:42:00,39.8,24.1,30.14,SE,138,0.7,0.0,53,0.00,,,0.00,0,TxWx,2013-02-07 02:42:00,
2013-02-06 21:43:00,39.9,23.9,30.14,SE,135,0.7,0.0,52,0.00,,,0.00,0,TxWx,2013-02-07 02:43:00,
2013-02-06 21:45:00,39.9,24.0,30.14,SE,134,0.7,0.0,52,0.00,,,0.00,0,TxWx,2013-02-07 02:45:00,
2013-02-06 21:47:00,39.9,24.1,30.14,SE,132,0.7,0.0,52,0.00,,,0.00,0,TxWx,2013-02-07 02:47:00,
2013-02-06 21:48:00,39.7,24.3,30.14,SE,131,0.7,0.0,53,0.00,,,0.00,0,TxWx,2013-02-07 02:48:00,
2013-02-06 21:50:00,39.7,23.8,30.14,SE,126,0.7,0.0,52,0.00,,,0.00,0,TxWx,2013-02-07 02:50:00,
2013-02-06 21:52:00,39.7,24.0,30.14,ESE,110,0.7,0.0,53,0.00,,,0.00,0,TxWx,2013-02-07 02:52:00,
2013-02-06 21:53:00,39.5,24.3,30.14,ESE,123,0.7,0.0,54,0.00,,,0.00,0,TxWx,2013-02-07 02:53:00,
2013-02-06 21:55:00,39.3,24.4,30.14,SSE,148,0.3,0.0,54,0.00,,,0.00,0,TxWx,2013-02-07 02:55:00,
2013-02-06 21:57:00,39.3,24.4,30.14,SSE,148,0.3,0.0,54,0.00,,,0.00,0,TxWx,2013-02-07 02:57:00,
2013-02-06 21:58:00,39.3,24.3,30.14,SSE,147,0.3,0.0,54,0.00,,,0.00,0,TxWx,2013-02-07 02:58:00,
2013-02-06 22:00:00,39.3,24.6,30.14,SSE,147,0.3,0.0,55,0.00,,,0.00,0,TxWx,2013-02-07 03:00:00,
2013-02-06 22:02:00,39.3,24.4,30.14,SSE,147,0.3,0.0,54,0.00,,,0.00,0,TxWx,2013-02-07 03:02:00,
2013-02-06 22:03:00,39.3,24.5,30.14,SSE,147,0.3,0.0,55,0.00,,,0.00,0,TxWx,2013-02-07 03:03:00,
2013-02-06 22:06:00,39.2,24.8,30.14,ENE,67,1.1,1.1,55,0.00,,,0.00,0,TxWx,2013-02-07 03:06:00,
2013-02-06 22:07:00,39.0,24.8,30.14,ENE,68,1.1,1.1,56,0.00,,,0.00,0,TxWx,2013-02-07 03:07:00,
2013-02-06 22:08:00,38.9,24.9,30.14,ENE,69,1.1,1.1,56,0.00,,,0.00,0,TxWx,2013-02-07 03:08:00,
2013-02-06 22:11:00,38.7,25.0,30.14,ENE,78,1.1,1.1,57,0.00,,,0.00,0,TxWx,2013-02-07 03:11:00,
2013-02-06 22:12:00,38.4,24.8,30.14,ENE,78,0.7,1.0,57,0.00,,,0.00,0,TxWx,2013-02-07 03:12:00,
2013-02-06 22:13:00,38.3,24.8,30.14,ENE,78,0.7,0.0,57,0.00,,,0.00,0,TxWx,2013-02-07 03:13:00,
2013-02-06 22:16:00,37.9,24.8,30.14,ENE,76,1.1,1.1,58,0.00,,,0.00,0,TxWx,2013-02-07 03:16:00,
2013-02-06 22:17:00,37.8,24.9,30.14,East,87,1.5,1.5,59,0.00,,,0.00,0,TxWx,2013-02-07 03:17:00,
2013-02-06 22:18:00,37.8,24.9,30.14,ENE,70,1.1,1.1,59,0.00,,,0.00,0,TxWx,2013-02-07 03:18:00,
2013-02-06 22:21:00,37.7,24.9,30.14,ENE,77,1.5,1.5,59,0.00,,,0.00,0,TxWx,2013-02-07 03:21:00,
2013-02-06 22:22:00,37.6,25.0,30.13,ENE,76,1.5,1.5,59,0.00,,,0.00,0,TxWx,2013-02-07 03:22:00,
2013-02-06 22:23:00,37.6,25.0,30.13,ENE,77,1.5,1.5,59,0.00,,,0.00,0,TxWx,2013-02-07 03:23:00,
2013-02-06 22:26:00,37.6,24.9,30.13,East,81,1.1,1.1,59,0.00,,,0.00,0,TxWx,2013-02-07 03:26:00,
2013-02-06 22:27:00,37.5,25.0,30.13,ENE,78,1.5,1.5,60,0.00,,,0.00,0,TxWx,2013-02-07 03:27:00,
2013-02-06 22:28:00,37.5,25.0,30.13,ENE,78,1.5,1.5,60,0.00,,,0.00,0,TxWx,2013-02-07 03:28:00,
2013-02-06 22:31:00,37.5,25.3,30.13,ENE,77,0.7,0.0,61,0.00,,,0.00,0,TxWx,2013-02-07 03:31:00,
2013-02-06 22:33:00,37.6,25.1,30.13,East,80,1.1,1.1,60,0.00,,,0.00,0,TxWx,2013-02-07 03:33:00,
2013-02-06 22:34:00,37.6,25.1,30.13,East,81,0.7,1.0,60,0.00,,,0.00,0,TxWx,2013-02-07 03:34:00,
2013-02-06 22:36:00,37.9,25.3,30.13,East,82,0.7,0.0,60,0.00,,,0.00,0,TxWx,2013-02-07 03:36:00,
2013-02-06 22:38:00,38.1,25.6,30.13,ENE,63,0.7,1.0,60,0.00,,,0.00,0,TxWx,2013-02-07 03:38:00,
2013-02-06 22:41:00,38.0,25.3,30.12,ENE,66,1.1,1.1,59,0.00,,,0.00,0,TxWx,2013-02-07 03:41:00,
2013-02-06 22:43:00,37.8,25.4,30.12,ENE,70,1.5,1.5,60,0.00,,,0.00,0,TxWx,2013-02-07 03:43:00,
2013-02-06 22:44:00,37.8,25.5,30.12,ENE,66,1.1,1.1,60,0.00,,,0.00,0,TxWx,2013-02-07 03:44:00,
2013-02-06 22:47:00,37.6,25.7,30.12,ENE,63,1.1,1.1,61,0.00,,,0.00,0,TxWx,2013-02-07 03:47:00,
2013-02-06 22:48:00,37.5,25.6,30.12,ENE,60,1.5,1.5,62,0.00,,,0.00,0,TxWx,2013-02-07 03:48:00,
2013-02-06 22:49:00,37.4,25.6,30.12,ENE,60,1.1,1.1,61,0.00,,,0.00,0,TxWx,2013-02-07 03:49:00,
2013-02-06 22:52:00,37.3,25.6,30.12,ENE,60,0.0,0.0,62,0.00,,,0.00,0,TxWx,2013-02-07 03:52:00,
2013-02-06 22:53:00,37.3,25.6,30.12,ENE,60,0.0,0.0,62,0.00,,,0.00,0,TxWx,2013-02-07 03:53:00,
2013-02-06 22:54:00,37.3,25.5,30.12,ENE,60,0.0,0.0,62,0.00,,,0.00,0,TxWx,2013-02-07 03:54:00,
2013-02-06 22:57:00,37.0,25.8,30.12,ENE,68,0.0,0.0,63,0.00,,,0.00,0,TxWx,2013-02-07 03:57:00,
2013-02-06 22:58:00,37.0,25.9,30.12,ENE,68,0.0,0.0,63,0.00,,,0.00,0,TxWx,2013-02-07 03:58:00,
2013-02-06 22:59:00,37.0,26.0,30.12,ENE,68,0.0,0.0,64,0.00,,,0.00,0,TxWx,2013-02-07 03:59:00,
2013-02-06 23:02:00,37.0,26.0,30.12,ENE,68,0.0,0.0,64,0.00,,,0.00,0,TxWx,2013-02-07 04:02:00,
2013-02-06 23:03:00,37.0,25.8,30.12,ENE,68,0.0,0.0,63,0.00,,,0.00,0,TxWx,2013-02-07 04:03:00,
2013-02-06 23:05:00,37.0,25.6,30.12,ENE,68,0.0,0.0,63,0.00,,,0.00,0,TxWx,2013-02-07 04:05:00,
2013-02-06 23:07:00,37.0,25.8,30.12,ENE,68,0.0,0.0,63,0.00,,,0.00,0,TxWx,2013-02-07 04:07:00,
2013-02-06 23:09:00,37.0,25.6,30.12,ENE,68,0.0,0.0,63,0.00,,,0.00,0,TxWx,2013-02-07 04:09:00,
2013-02-06 23:10:00,37.0,25.6,30.12,ENE,68,0.0,0.0,63,0.00,,,0.00,0,TxWx,2013-02-07 04:10:00,
2013-02-06 23:12:00,37.0,25.6,30.12,ENE,68,0.0,0.0,63,0.00,,,0.00,0,TxWx,2013-02-07 04:12:00,
2013-02-06 23:14:00,36.9,25.7,30.12,ENE,68,0.0,0.0,63,0.00,,,0.00,0,TxWx,2013-02-07 04:14:00,
2013-02-06 23:15:00,36.9,25.7,30.12,ENE,68,0.0,0.0,63,0.00,,,0.00,0,TxWx,2013-02-07 04:15:00,
2013-02-06 23:17:00,36.8,25.7,30.12,ENE,68,0.0,0.0,63,0.00,,,0.00,0,TxWx,2013-02-07 04:17:00,
2013-02-06 23:19:00,36.8,25.4,30.12,ENE,68,0.0,0.0,63,0.00,,,0.00,0,TxWx,2013-02-07 04:19:00,
2013-02-06 23:20:00,36.8,25.4,30.12,ENE,68,0.0,0.0,63,0.00,,,0.00,0,TxWx,2013-02-07 04:20:00,
2013-02-06 23:22:00,36.7,25.7,30.12,ENE,68,0.0,0.0,64,0.00,,,0.00,0,TxWx,2013-02-07 04:22:00,
2013-02-06 23:24:00,36.6,25.8,30.12,ENE,68,0.0,0.0,64,0.00,,,0.00,0,TxWx,2013-02-07 04:24:00,
2013-02-06 23:25:00,36.5,25.7,30.12,ENE,68,0.0,0.0,64,0.00,,,0.00,0,TxWx,2013-02-07 04:25:00,
2013-02-06 23:27:00,36.4,25.7,30.12,ENE,70,0.7,0.0,64,0.00,,,0.00,0,TxWx,2013-02-07 04:27:00,
2013-02-06 23:29:00,36.3,25.6,30.12,ENE,69,0.3,0.0,64,0.00,,,0.00,0,TxWx,2013-02-07 04:29:00,
2013-02-06 23:30:00,36.3,25.8,30.12,ENE,70,0.0,0.0,65,0.00,,,0.00,0,TxWx,2013-02-07 04:30:00,
2013-02-06 23:33:00,36.4,25.9,30.12,ENE,69,0.0,0.0,65,0.00,,,0.00,0,TxWx,2013-02-07 04:33:00,
2013-02-06 23:35:00,36.3,26.1,30.12,ENE,69,0.0,0.0,66,0.00,,,0.00,0,TxWx,2013-02-07 04:35:00,
2013-02-06 23:36:00,36.4,26.2,30.12,ENE,69,0.0,0.0,66,0.00,,,0.00,0,TxWx,2013-02-07 04:36:00,
2013-02-06 23:38:00,36.4,25.7,30.12,ENE,69,0.3,0.0,64,0.00,,,0.00,0,TxWx,2013-02-07 04:38:00,
2013-02-06 23:40:00,36.4,25.6,30.12,ENE,69,0.7,0.0,64,0.00,,,0.00,0,TxWx,2013-02-07 04:40:00,
2013-02-06 23:41:00,36.5,25.4,30.12,ENE,70,0.0,0.0,63,0.00,,,0.00,0,TxWx,2013-02-07 04:41:00,
2013-02-06 23:43:00,36.5,25.7,30.12,ENE,69,0.7,0.0,64,0.00,,,0.00,0,TxWx,2013-02-07 04:43:00,
2013-02-06 23:45:00,36.6,25.5,30.12,ENE,69,0.0,0.0,63,0.00,,,0.00,0,TxWx,2013-02-07 04:45:00,
2013-02-06 23:46:00,36.6,25.5,30.12,ENE,69,0.0,0.0,63,0.00,,,0.00,0,TxWx,2013-02-07 04:46:00,
2013-02-06 23:47:00,36.7,25.5,30.12,ENE,69,0.3,0.0,63,0.00,,,0.00,0,TxWx,2013-02-07 04:47:00,
2013-02-06 23:48:00,36.8,25.9,30.12,ENE,69,0.3,0.0,64,0.00,,,0.00,0,TxWx,2013-02-07 04:48:00,
2013-02-06 23:50:00,36.8,25.8,30.12,ENE,70,0.0,0.0,64,0.00,,,0.00,0,TxWx,2013-02-07 04:50:00,
2013-02-06 23:51:00,36.8,25.7,30.12,ENE,70,0.0,0.0,63,0.00,,,0.00,0,TxWx,2013-02-07 04:51:00,
2013-02-06 23:52:00,37.0,25.7,30.12,ENE,70,0.0,0.0,63,0.00,,,0.00,0,TxWx,2013-02-07 04:52:00,
2013-02-06 23:53:00,37.0,25.8,30.12,ENE,69,0.0,0.0,63,0.00,,,0.00,0,TxWx,2013-02-07 04:53:00,
2013-02-06 23:55:00,37.0,25.4,30.12,ENE,69,0.0,0.0,62,0.00,,,0.00,0,TxWx,2013-02-07 04:55:00,
2013-02-06 23:56:00,37.1,25.4,30.12,ENE,70,0.0,0.0,62,0.00,,,0.00,0,TxWx,2013-02-07 04:56:00,
2013-02-06 23:57:00,37.1,25.6,30.12,ENE,70,0.0,0.0,62,0.00,,,0.00,0,TxWx,2013-02-07 04:57:00,
2013-02-06 23:59:00,37.1,25.9,30.12,ENE,70,0.0,0.0,63,0.00,,,0.00,0,TxWx,2013-02-07 04:59:00,